GFSNE_925_thetae_000.txt.gz
Theta_e
332 333 335 331 330 331 332 333 332 333 330 328 328 327 328 327 328 328 329 328 327 323 319 318 316 316 316 317 317 317 317 318 322 331 336 340 345 343
329 330 333 331 331 331 332 331 330 331 333 328 327 327 329 329 329 329 329 328 327 326 324 322 320 318 317 318 318 317 317 318 318 321 329 335 339 344
331 333 335 336 333 330 330 329 329 329 330 328 327 327 328 330 330 330 329 328 327 326 324 323 322 319 319 319 319 318 318 318 318 319 321 328 334 338
333 334 336 334 334 333 332 332 330 330 330 329 328 329 328 327 328 330 329 327 326 326 325 324 321 321 320 321 321 319 320 320 320 319 320 322 328 333
333 335 335 335 333 333 332 330 329 329 329 329 329 328 327 326 327 327 328 325 326 325 324 323 322 321 322 321 321 321 320 321 321 321 320 320 323 329
334 335 336 336 334 333 332 332 332 331 329 328 329 327 326 326 326 326 326 324 323 324 324 323 321 322 322 322 322 321 321 321 322 322 322 321 321 325
335 336 336 337 334 331 330 329 330 329 328 327 327 326 325 326 327 326 325 325 324 324 324 322 320 322 324 323 322 321 321 320 321 322 323 324 322 322
337 338 336 333 334 331 329 326 326 327 327 326 326 326 327 328 327 326 326 325 326 324 323 321 323 324 323 322 321 320 320 320 320 321 322 322 327 325
338 336 334 331 332 333 333 330 327 327 326 327 329 328 328 326 326 326 325 325 324 321 323 324 323 323 321 321 320 321 321 320 320 321 322 321 323 324
337 334 330 330 331 332 332 330 329 329 329 328 327 326 325 324 322 321 322 322 322 322 323 325 322 320 320 320 320 320 319 319 320 321 321 321 323 323
330 329 326 325 331 329 327 328 329 328 326 324 322 320 319 318 318 319 320 321 322 321 320 321 320 320 320 319 320 320 321 321 321 321 322 322 322 324
328 328 329 330 329 326 324 327 326 325 325 322 321 321 319 320 319 319 320 320 320 319 318 320 320 319 319 318 319 320 320 323 326 325 323 323 323 324
329 331 331 327 323 321 319 323 324 322 319 319 319 317 315 317 317 317 317 315 314 314 315 319 320 318 317 317 318 319 321 324 325 327 328 324 324 325
333 330 328 326 318 317 315 318 317 315 317 319 317 314 315 315 314 313 313 312 310 313 317 319 320 317 316 316 319 321 324 326 328 331 331 326 326 327
330 327 323 318 317 315 313 313 314 316 318 317 314 314 314 313 312 311 310 308 310 316 319 320 318 317 317 318 320 323 324 325 327 333 334 332 324 326
323 320 319 318 317 317 316 314 316 316 315 313 313 312 311 311 310 308 306 307 315 318 319 319 317 318 318 319 323 326 326 329 329 336 336 336 334 332
323 322 321 321 320 319 318 317 315 314 312 312 311 310 309 307 306 305 305 311 316 317 316 318 318 318 317 319 321 321 320 321 329 332 334 332 332 336
317 320 320 319 319 318 317 314 312 311 310 309 308 307 306 305 304 304 306 311 315 317 313 314 319 318 316 317 319 318 318 318 320 330 330 332 331 332
317 318 318 317 316 314 312 310 310 309 307 306 306 305 304 304 304 304 306 309 314 315 312 314 319 317 315 318 317 319 316 316 317 321 332 331 333 332
317 317 316 314 312 311 310 309 308 306 305 304 304 303 303 303 303 304 305 308 312 314 314 316 313 313 313 316 316 317 315 313 315 319 328 333 336 336
315 314 312 311 310 310 309 307 305 303 300 302 303 303 303 303 303 304 305 306 310 314 313 309 310 313 314 314 315 314 314 314 315 314 316 325 335 332
313 312 311 310 310 309 306 303 301 301 302 302 302 302 302 302 303 303 304 305 310 312 308 308 313 313 312 313 314 313 313 311 312 313 315 314 314 326
313 312 311 309 308 305 302 300 300 301 301 301 301 301 301 302 302 302 303 304 306 309 310 313 310 308 310 311 311 313 312 311 311 312 312 315 317 316

GFSNE_925_thetae_003.txt.gz
Theta_e
334 335 335 333 331 331 332 331 333 335 335 330 328 328 328 330 329 329 330 331 330 328 327 324 321 319 318 317 316 318 318 317 317 317 317 319 328 336
332 331 333 332 331 331 333 332 330 329 331 328 329 329 329 329 329 330 330 330 329 328 328 326 324 322 322 320 318 318 319 319 318 318 318 318 318 324
335 332 333 335 334 332 330 331 329 329 330 329 329 329 330 330 330 331 331 330 329 328 327 326 324 323 322 321 320 320 321 320 319 320 319 319 318 318
334 334 335 335 337 337 334 333 333 332 332 334 331 331 330 330 330 329 329 328 327 327 326 326 324 323 322 322 321 321 321 321 321 321 321 321 321 320
334 334 335 336 336 335 335 334 332 332 332 330 330 329 328 328 327 328 329 328 327 326 326 325 325 324 323 322 321 321 322 322 322 321 321 321 322 322
334 335 336 337 337 336 336 336 335 335 333 330 329 329 329 328 327 327 328 326 327 326 326 325 322 324 323 321 321 322 323 323 322 321 321 321 320 321
334 335 337 337 337 336 335 333 332 332 332 331 330 329 329 328 328 328 328 327 327 325 324 324 325 324 323 322 323 324 324 323 322 321 321 321 320 320
336 337 337 339 335 332 330 332 331 329 329 329 330 329 329 329 329 329 328 326 325 323 324 324 322 323 324 324 325 324 322 322 321 320 320 321 321 321
335 337 339 336 334 334 330 328 327 330 329 326 330 331 330 330 327 327 326 325 324 322 322 323 322 323 324 325 323 321 320 320 321 321 321 321 320 321
335 337 338 337 335 329 329 328 331 333 331 330 330 331 328 326 325 323 322 322 321 321 322 324 322 322 323 323 321 322 320 320 321 320 321 322 322 321
336 337 338 334 329 327 327 329 331 331 331 330 328 325 322 320 319 319 320 319 319 319 319 320 320 318 318 319 321 321 321 320 320 320 322 322 323 324
335 338 333 328 328 329 330 330 331 330 328 327 327 323 322 322 319 319 320 321 319 319 316 315 315 316 322 321 321 320 319 319 319 320 321 323 326 325
335 334 330 329 329 327 326 326 328 327 327 322 321 321 321 319 317 317 318 316 315 314 313 310 313 320 322 321 318 318 318 318 319 321 323 327 328 326
333 332 333 333 327 325 323 320 319 319 319 319 320 321 320 316 315 315 313 311 312 312 308 310 318 321 321 319 318 319 319 320 321 322 325 326 329 330
331 330 329 326 323 321 320 316 314 316 317 320 320 318 314 314 313 312 311 308 306 306 315 319 318 318 321 320 319 318 321 320 323 326 328 330 330 328
326 326 323 321 320 320 318 318 316 317 319 317 314 313 312 311 311 309 307 306 306 311 316 318 317 316 320 320 318 318 321 319 319 320 322 334 332 326
328 327 324 324 323 322 321 319 319 318 316 314 313 312 310 309 308 306 305 306 308 313 316 317 316 318 320 318 317 318 318 317 316 318 319 333 334 332
325 323 322 322 321 320 320 319 317 315 314 312 310 309 308 307 306 305 306 307 308 312 315 318 317 317 315 315 316 317 317 316 315 316 319 328 331 332
319 320 321 321 320 319 317 315 313 312 311 308 307 307 306 305 305 305 306 306 309 311 315 316 315 315 313 315 315 315 314 314 313 315 316 319 330 331
318 320 320 318 317 315 313 312 311 309 308 306 305 305 305 305 304 305 305 306 307 311 315 313 310 312 313 314 316 315 313 312 311 313 314 315 323 332
320 319 317 316 314 313 312 311 309 307 304 302 304 305 304 304 304 304 305 305 306 310 313 314 312 312 314 315 314 313 313 312 311 312 312 313 319 332
319 318 316 315 314 313 311 309 306 303 303 304 304 304 303 303 304 304 304 305 306 307 311 313 312 312 313 313 313 313 312 311 310 310 309 310 311 315
318 317 316 315 313 311 309 305 303 302 303 303 303 303 303 303 303 303 304 304 305 306 308 309 312 310 312 309 311 313 311 310 310 309 309 309 308 310

GFSNE_925_thetae_006.txt.gz
Theta_e
337 336 333 334 335 334 332 333 332 338 334 331 329 330 329 329 329 330 330 330 330 331 329 328 326 325 324 321 319 319 318 317 317 318 318 318 317 317
335 335 336 336 334 333 331 331 332 333 335 330 330 330 330 329 329 330 330 330 330 329 329 329 327 326 325 323 322 321 320 319 319 320 320 319 320 319
334 333 333 335 334 334 335 333 331 329 335 332 329 330 329 329 328 329 329 329 331 331 330 328 328 327 326 324 323 322 322 321 320 321 321 320 321 320
339 337 334 335 335 334 334 335 333 333 334 335 332 331 331 331 328 331 330 330 329 329 326 327 327 326 325 325 323 323 322 321 320 321 321 321 321 321
335 335 334 335 336 336 337 335 334 335 334 333 333 332 330 327 326 327 327 328 329 327 326 327 326 325 325 325 324 324 323 321 320 321 322 322 322 321
337 335 335 337 336 336 334 334 335 335 333 332 332 332 331 330 330 330 329 328 329 329 328 327 326 324 324 325 325 324 323 322 322 323 323 323 323 322
339 336 334 336 337 336 336 335 335 333 331 330 329 330 330 330 329 329 329 329 328 327 328 325 324 325 325 324 323 323 323 323 324 325 323 322 322 321
339 337 335 338 336 333 333 332 330 331 331 330 330 330 329 330 329 328 330 329 328 326 326 324 323 324 323 321 321 324 324 324 325 321 320 320 320 320
339 336 335 335 336 335 334 333 329 328 327 326 328 329 330 329 328 328 328 327 325 323 322 322 322 323 324 324 323 322 322 323 321 321 320 319 318 319
337 334 334 334 337 337 335 332 328 329 330 329 330 330 329 328 327 325 320 320 321 321 321 323 320 319 320 321 318 316 314 317 318 319 320 320 320 319
332 331 334 336 338 332 332 329 329 329 329 331 329 328 329 328 324 321 320 320 321 321 320 319 319 316 314 313 313 316 320 321 320 319 318 318 318 318
332 333 334 334 335 332 329 330 333 331 331 330 328 327 326 325 321 322 321 321 321 322 319 316 314 312 310 314 320 321 321 319 319 318 319 320 320 319
334 333 334 335 332 329 329 328 328 328 326 325 324 321 321 322 323 322 321 320 317 315 313 312 312 311 312 317 321 320 321 319 319 318 320 321 322 322
334 335 334 333 332 330 326 323 322 320 319 320 321 320 322 320 315 314 313 312 312 313 310 308 313 314 319 318 318 319 320 318 318 320 319 317 318 323
333 335 332 329 329 326 323 320 320 319 318 319 320 321 315 314 313 312 312 309 308 307 306 308 316 316 318 318 319 320 319 317 317 319 317 316 317 319
330 330 328 326 325 323 322 320 319 318 319 320 317 316 315 312 311 310 309 307 306 306 309 313 315 317 317 318 319 318 317 318 316 316 314 314 316 320
330 328 325 324 324 323 321 321 321 320 319 319 315 314 311 310 309 308 306 305 308 309 311 315 316 316 317 316 316 316 317 316 314 314 313 314 316 318
328 330 327 326 326 324 323 322 320 319 318 314 312 310 309 309 308 306 306 307 308 310 310 314 314 314 315 314 314 315 315 314 313 312 312 314 314 316
326 325 323 323 321 320 318 317 316 314 313 310 309 309 307 307 306 306 306 307 308 307 308 314 314 312 314 315 314 315 315 313 312 311 311 311 311 313
321 320 321 321 319 318 316 315 313 312 309 307 305 304 306 306 305 306 306 306 306 307 308 315 316 313 312 313 314 314 313 312 310 310 310 309 310 313
321 321 320 318 317 315 314 313 312 310 307 304 304 306 306 305 305 305 305 305 306 307 311 313 313 313 312 314 313 313 313 312 310 309 309 308 308 310
322 320 319 317 316 315 314 313 310 307 305 305 306 304 304 304 304 304 305 305 306 306 308 310 311 312 313 311 311 312 313 310 309 307 306 305 307 307
321 319 318 317 316 315 313 310 307 304 303 304 304 304 303 303 304 304 304 305 305 305 305 305 311 312 311 311 311 309 309 308 308 306 305 304 305 304

GFSNE_925_thetae_009.txt.gz
Theta_e
335 333 334 335 335 335 335 334 331 329 327 330 328 330 332 331 328 328 329 329 330 330 330 329 328 328 327 326 324 322 320 321 319 318 318 318 318 318
337 336 333 333 333 335 333 333 332 331 328 330 331 328 328 329 329 329 330 330 330 328 328 330 329 329 328 327 326 325 324 322 322 321 320 320 320 320
335 334 334 334 335 333 333 334 332 334 332 332 331 330 330 330 327 329 329 329 329 329 328 329 330 328 328 328 327 325 324 323 322 322 321 320 321 321
335 335 334 332 335 333 333 334 336 335 334 333 332 332 332 332 330 330 328 330 328 328 330 328 328 326 325 325 326 325 325 324 323 323 321 321 320 321
336 336 335 335 332 334 335 336 336 334 334 333 332 331 330 330 331 330 328 329 328 331 332 328 327 327 327 326 326 324 323 324 324 323 323 322 322 322
338 339 338 334 333 336 336 335 334 333 333 332 332 330 331 331 329 331 329 328 327 326 327 327 327 326 325 324 325 325 324 323 323 323 323 323 323 324
338 338 337 336 336 336 335 335 334 328 332 332 331 330 329 329 326 329 329 328 327 327 326 326 326 325 324 322 322 321 319 320 322 323 323 323 324 324
338 337 337 334 335 336 337 334 333 334 334 332 330 329 329 328 327 330 328 328 326 325 326 322 317 317 319 322 323 323 321 322 322 319 321 321 319 318
338 338 339 335 335 336 336 333 332 331 330 330 329 327 327 326 328 329 327 327 327 322 318 320 320 321 319 319 319 318 319 315 314 312 316 319 319 319
340 338 339 337 335 334 333 334 334 332 330 328 330 329 329 328 328 328 327 325 320 318 317 321 321 320 317 315 314 312 311 314 315 318 319 319 318 318
338 337 337 335 332 333 332 331 331 331 327 329 330 330 328 327 328 328 325 321 319 320 319 320 320 314 312 308 308 313 317 318 319 318 319 320 319 318
335 335 334 331 333 332 331 332 330 328 330 329 329 327 326 324 324 324 323 320 320 319 320 316 313 311 309 309 310 314 318 318 318 319 319 319 318 317
332 333 332 330 332 333 332 329 328 329 326 323 321 320 320 320 321 321 319 316 316 317 313 313 312 309 311 311 315 317 317 318 318 319 317 317 316 317
336 336 334 335 333 332 330 328 325 323 320 319 318 318 319 316 314 313 312 312 310 310 307 306 306 307 310 316 317 318 317 317 318 317 316 316 315 316
336 334 333 332 330 328 328 326 322 319 318 318 318 319 317 315 312 310 310 309 307 306 306 307 308 311 313 317 317 317 317 316 315 315 315 315 313 313
334 333 332 329 327 326 324 323 320 319 318 318 319 319 315 312 310 309 307 306 305 306 306 308 312 316 315 315 316 316 315 314 314 314 313 312 312 312
333 328 325 324 323 323 322 322 321 321 320 319 319 315 311 309 309 307 306 305 306 307 307 307 307 314 314 314 315 315 314 314 314 314 312 311 311 312
329 327 326 326 326 326 325 325 322 322 321 318 312 309 308 308 306 306 306 305 306 306 306 306 307 313 314 313 313 314 314 314 314 313 311 310 310 310
329 330 328 326 324 321 319 320 318 317 314 311 309 307 305 305 306 306 305 305 305 305 305 305 310 313 310 311 312 313 314 313 313 310 310 309 308 307
326 325 322 322 320 318 316 315 313 311 310 308 307 304 304 305 305 304 304 305 305 305 305 306 312 312 312 310 312 312 312 311 310 308 307 306 305 307
321 319 320 318 316 315 314 313 312 311 309 307 304 305 306 304 304 303 303 304 304 304 305 308 307 309 312 312 310 310 310 308 307 307 305 304 305 305
322 321 320 316 316 315 315 314 312 308 306 304 304 305 304 303 303 303 304 303 304 305 304 304 304 309 312 310 309 308 307 306 306 305 304 302 303 304
321 319 317 317 316 316 315 313 310 306 303 303 304 303 303 303 303 304 303 304 305 304 304 304 304 310 310 309 307 307 306 304 305 303 302 300 300 300

GFSNE_925_thetae_012.txt.gz
Theta_e
334 337 335 336 335 335 335 333 329 326 325 329 329 330 330 331 330 329 328 328 329 329 329 330 330 329 328 328 327 326 325 324 322 322 321 320 320 319
335 335 333 332 332 334 334 333 332 330 326 330 330 329 328 328 328 329 328 329 330 330 330 330 330 330 330 330 329 328 327 326 324 323 322 322 321 320
337 337 336 333 333 334 333 333 334 333 329 330 332 330 331 331 330 330 328 328 329 328 330 329 328 328 329 329 327 325 326 326 325 324 323 323 322 321
336 338 337 333 334 334 335 333 335 335 332 331 332 332 331 329 331 331 330 330 329 329 328 328 329 330 329 328 327 326 326 326 326 325 325 324 323 323
337 337 334 334 335 333 334 333 334 335 334 333 332 332 330 330 329 329 330 329 330 329 327 326 326 327 328 327 326 325 325 325 324 324 323 323 323 323
336 336 336 335 334 334 332 335 335 335 334 333 332 331 331 330 329 329 329 329 328 328 325 325 325 323 326 325 324 322 321 322 321 319 320 322 322 322
338 337 338 337 338 337 333 335 335 334 334 333 332 331 331 329 329 328 327 328 328 325 325 322 322 319 317 316 317 319 321 322 321 321 321 317 316 321
339 335 337 337 337 336 333 335 334 335 333 332 331 330 329 328 327 326 327 328 325 325 325 324 317 317 319 320 318 319 318 319 317 313 314 315 313 316
339 333 336 337 337 336 334 333 333 333 333 332 332 330 329 328 328 328 328 328 327 326 325 320 318 318 319 319 318 316 314 313 312 311 311 313 317 318
338 334 337 338 338 335 334 333 333 331 331 330 330 328 327 328 330 329 328 328 327 326 322 319 320 319 319 316 314 313 308 312 316 317 317 318 318 318
338 337 338 339 337 333 334 333 330 329 330 330 328 328 327 328 327 326 327 325 321 322 321 320 320 318 313 310 308 307 310 315 316 317 316 316 316 315
339 340 340 338 336 334 332 330 330 329 330 328 329 328 326 325 323 322 323 322 320 318 319 317 315 312 310 308 307 306 313 315 317 317 315 315 315 315
338 337 335 335 334 332 332 331 331 330 328 325 321 319 319 319 319 316 313 313 315 316 311 312 311 308 308 308 308 310 314 316 315 316 314 314 313 312
336 335 332 334 334 332 331 330 329 326 323 318 317 317 319 316 315 312 311 310 309 308 306 305 306 306 307 308 310 315 315 314 315 315 314 314 313 312
336 335 335 334 332 331 329 328 326 323 319 318 317 319 318 315 311 311 310 308 307 306 305 306 306 309 311 314 315 315 314 314 314 314 314 313 313 313
335 335 333 332 330 328 327 325 323 320 318 318 317 319 318 313 311 309 307 306 305 305 305 305 306 307 308 311 314 313 313 314 314 313 313 313 312 312
334 333 331 328 326 325 323 322 321 320 319 319 319 319 314 310 308 307 306 306 305 305 305 304 304 305 307 312 313 313 312 313 313 313 312 311 310 309
332 330 327 325 324 324 323 323 323 322 321 320 318 312 308 308 306 305 306 304 304 304 304 304 304 306 312 309 311 311 312 312 312 311 310 308 307 307
329 327 326 326 326 325 324 324 322 321 321 316 310 307 306 305 304 305 304 303 303 304 304 304 305 309 307 309 311 311 311 310 310 308 307 307 307 305
329 329 329 328 322 320 319 317 315 313 311 309 308 305 304 304 305 304 303 303 303 303 303 304 305 306 309 308 310 310 309 308 306 305 305 304 304 302
328 326 325 321 321 317 315 313 312 311 309 308 304 304 305 304 303 303 303 303 303 303 303 303 304 303 305 312 308 308 308 305 304 303 303 302 300 301
323 322 319 319 316 314 314 313 313 311 308 305 303 304 304 303 302 303 303 302 303 303 303 302 304 306 311 308 307 307 305 304 304 302 301 299 299 300
321 320 320 317 315 315 315 314 312 309 305 303 303 304 303 302 302 303 302 303 303 303 301 302 304 309 308 307 306 305 304 303 303 302 301 299 297 297

GFSNE_925_thetae_015.txt.gz
Theta_e
337 337 334 335 334 333 332 331 327 325 324 328 329 328 329 330 331 329 329 329 328 327 327 328 328 330 329 329 329 329 328 327 326 324 323 322 322 321
334 333 336 334 335 334 334 333 332 329 325 328 329 329 328 328 328 329 329 328 327 328 329 329 329 330 330 329 328 329 329 327 328 327 325 324 323 322
336 334 334 333 332 332 334 333 333 331 329 330 330 330 329 330 330 330 330 330 329 329 330 329 330 328 329 329 329 329 328 327 326 326 326 326 325 324
333 336 335 336 335 333 333 334 333 333 332 330 331 331 331 331 330 329 328 329 330 330 330 329 328 326 327 329 328 328 327 326 326 325 326 326 325 324
333 333 335 336 336 333 334 335 333 334 334 332 331 331 332 331 330 329 328 327 327 329 328 327 325 324 325 324 325 324 323 323 323 323 323 322 322 322
335 334 334 335 334 333 334 332 332 333 334 334 333 332 331 331 330 328 327 325 327 326 327 326 324 322 320 319 319 318 317 318 320 320 321 320 321 322
338 337 335 335 335 335 334 335 334 335 335 334 333 332 330 329 328 327 327 326 325 327 327 324 324 322 316 317 319 319 318 318 318 318 317 316 314 315
341 339 338 336 336 337 336 337 335 334 334 333 332 331 330 329 328 327 327 326 325 327 326 325 325 320 317 317 317 318 318 317 316 313 312 311 312 313
343 340 338 338 335 337 337 337 335 333 332 332 332 331 330 329 328 328 328 327 327 327 326 325 324 320 320 320 318 317 317 315 310 311 315 316 317 317
344 343 341 339 334 335 337 336 334 334 332 331 330 329 330 328 328 329 328 327 327 327 325 320 321 321 317 314 313 312 310 308 309 315 316 316 316 315
344 343 341 339 334 337 337 334 333 333 331 329 329 330 328 328 327 326 325 324 322 323 322 319 320 315 311 308 308 307 307 306 308 313 314 315 316 314
343 341 340 338 338 339 337 334 333 330 329 330 329 327 325 322 320 320 320 321 320 318 317 316 313 311 308 306 306 307 309 311 313 313 313 315 315 314
341 340 339 339 339 336 335 333 332 330 330 328 326 319 317 317 318 314 313 312 314 315 312 312 311 308 307 306 307 310 311 312 314 313 312 314 314 314
338 337 337 337 334 333 333 331 331 330 328 324 318 317 318 317 316 314 311 311 309 308 306 305 305 305 306 306 307 308 309 311 312 313 314 314 313 313
335 335 334 333 334 333 331 330 329 327 324 318 317 317 318 316 314 312 311 309 307 306 305 305 305 305 305 306 308 308 312 312 312 312 312 312 312 311
335 335 334 334 332 330 329 327 326 324 320 318 317 317 318 318 314 310 308 306 305 304 304 304 304 303 304 305 307 309 309 311 311 310 310 311 310 310
336 334 332 331 330 327 326 325 323 321 319 318 318 318 318 316 311 308 306 305 304 303 303 303 304 304 305 310 311 307 310 311 310 308 307 308 308 308
334 332 331 331 329 325 323 322 321 321 320 319 319 319 317 310 308 306 305 304 303 303 303 303 303 304 305 304 305 307 310 310 308 306 306 305 304 304
335 332 331 329 325 324 323 323 323 323 322 320 320 315 309 306 304 304 303 303 302 302 303 303 303 302 303 304 304 309 311 309 306 305 304 303 303 302
333 330 328 326 325 325 323 322 322 320 318 318 312 307 305 303 304 303 303 302 302 302 303 303 302 301 302 302 306 311 308 306 304 303 303 302 301 300
327 326 326 327 327 325 321 319 317 315 312 310 309 306 305 305 303 303 302 302 302 302 302 302 302 303 307 310 307 307 305 305 304 302 302 302 301 300
329 328 327 326 323 320 318 315 313 312 311 310 306 303 303 304 303 302 302 302 302 302 301 301 303 304 309 308 306 305 304 304 304 303 302 301 300 300
327 326 323 320 319 318 315 314 313 312 309 307 304 302 303 303 302 302 302 302 302 301 300 301 302 302 307 307 305 304 303 304 302 302 302 301 299 298

GFSNE_925_thetae_018.txt.gz
Theta_e
335 336 335 335 334 331 331 329 328 331 331 327 328 328 328 328 329 329 329 328 329 328 328 327 327 328 328 329 329 329 329 329 329 328 327 326 324 322
335 334 337 335 335 334 334 333 332 328 332 327 328 328 328 328 328 328 328 329 329 328 328 328 329 328 329 330 329 329 329 329 328 327 326 326 326 325
335 333 334 333 334 334 334 333 333 331 330 329 329 330 329 328 330 330 330 329 329 329 330 330 329 328 328 328 330 329 329 328 327 326 326 326 325 326
334 334 334 333 333 332 331 332 333 332 331 331 331 330 331 330 331 331 329 328 327 326 327 329 329 327 325 324 324 325 326 326 326 325 325 325 325 325
337 334 333 335 334 335 333 333 333 333 333 332 332 331 330 331 330 330 329 326 325 326 328 328 327 326 324 322 321 322 323 323 322 321 321 322 321 321
341 337 333 334 335 335 334 332 334 333 333 333 332 332 332 332 330 329 328 325 325 324 325 327 326 323 322 318 316 317 318 318 319 320 320 319 319 319
343 341 337 334 333 335 334 333 333 332 332 332 333 332 332 331 329 329 327 326 325 325 325 325 325 324 324 317 316 317 318 318 317 316 316 314 313 313
343 342 340 337 335 335 336 335 334 334 334 333 334 333 332 330 330 328 327 326 328 326 326 327 327 326 325 321 319 319 318 317 317 315 313 309 313 315
343 344 344 341 338 337 336 337 337 337 335 333 333 332 331 330 329 328 327 327 327 327 326 326 326 325 321 321 319 315 313 314 314 309 310 314 315 315
345 346 345 344 342 338 337 336 337 336 334 334 332 331 330 329 329 328 328 327 326 325 324 323 322 321 318 312 311 310 308 307 307 307 306 312 314 314
346 342 341 343 343 341 337 336 336 334 333 332 331 329 329 328 327 327 326 324 323 322 320 319 319 314 311 309 307 306 306 308 310 311 312 313 312 313
338 338 342 344 343 340 336 337 335 333 332 330 329 329 327 324 320 319 319 321 320 319 315 317 314 311 309 306 306 307 308 309 311 311 312 312 313 314
342 345 343 342 340 338 338 338 336 334 331 329 329 325 317 316 317 316 314 313 313 315 312 313 311 309 308 307 306 306 306 306 308 310 311 311 311 312
345 345 342 339 338 338 336 335 334 332 331 328 323 317 317 317 316 316 313 311 311 309 308 306 307 305 305 306 306 305 305 307 309 310 310 309 309 309
346 341 338 338 336 334 333 332 332 331 329 324 318 317 317 317 316 313 311 310 308 306 305 304 304 304 304 304 307 306 308 310 309 310 311 310 310 310
337 335 335 333 332 332 332 331 330 329 326 323 318 317 317 317 317 315 311 307 306 305 304 303 303 303 303 304 304 308 310 311 311 311 310 309 309 309
334 334 333 333 331 330 329 328 327 324 323 319 318 317 317 317 316 312 308 305 305 303 303 303 303 303 303 305 307 307 309 309 311 310 308 307 307 306
334 330 330 330 331 328 326 324 323 323 320 319 318 318 318 318 314 308 305 304 303 303 302 302 303 302 304 304 303 304 307 310 310 308 307 306 305 305
334 331 331 331 330 327 325 323 322 321 321 320 319 318 319 313 308 305 304 303 302 301 302 302 302 302 306 306 305 305 309 310 308 306 305 305 304 304
333 332 332 332 330 327 323 322 322 322 322 321 320 319 314 307 304 303 303 302 301 302 302 303 301 301 303 306 305 307 308 306 306 305 305 304 303 302
334 334 333 332 329 324 323 323 322 321 319 317 316 311 307 304 304 303 302 301 302 301 303 303 301 301 303 307 308 308 307 305 303 303 303 303 303 302
334 331 329 327 325 325 324 321 320 317 314 313 311 309 305 304 304 302 301 302 302 302 302 301 301 302 303 307 308 308 307 305 303 303 302 301 301 302
327 326 326 326 326 326 323 319 317 315 313 312 310 308 304 302 303 302 301 301 302 302 300 301 301 302 303 303 305 305 305 303 302 302 301 301 300 299

GFSNE_925_thetae_021.txt.gz
Theta_e
337 335 337 339 337 335 334 334 334 335 334 334 332 330 329 329 330 330 329 329 328 329 327 327 328 328 328 329 329 329 329 328 328 329 328 327 327 326
339 339 336 338 338 337 335 334 333 334 335 333 332 333 330 331 330 328 329 328 329 329 329 328 328 328 328 328 329 328 327 327 328 329 329 327 326 325
340 338 338 337 337 337 337 337 336 335 335 335 333 332 329 330 332 331 332 331 332 328 328 328 330 329 328 328 327 327 327 329 329 328 327 327 326 326
344 340 338 337 338 337 336 337 336 336 335 337 336 335 333 335 335 334 335 332 332 329 325 326 328 328 327 326 325 323 323 323 324 325 325 324 324 324
345 341 336 336 337 336 336 335 335 336 335 336 335 336 335 335 335 334 334 333 329 327 326 328 327 326 326 324 321 319 317 317 317 320 322 322 320 319
347 343 341 337 335 336 338 337 336 336 337 336 335 335 336 336 335 334 334 333 331 329 327 325 326 326 323 322 322 317 316 317 318 318 318 318 319 318
347 345 341 341 336 333 337 338 337 337 337 336 336 335 334 335 335 333 333 332 331 330 328 329 328 327 326 326 324 318 318 317 317 318 318 316 315 314
349 347 344 343 340 335 333 335 335 337 337 337 336 336 337 337 334 333 332 331 330 330 329 327 329 327 327 326 324 320 320 319 317 317 315 312 309 311
350 348 346 343 342 339 335 334 335 335 335 339 338 336 335 336 335 333 332 332 331 330 329 328 327 326 324 323 322 315 312 310 309 310 311 308 307 312
350 349 347 345 344 341 341 338 337 337 336 336 338 338 336 336 331 332 333 332 330 329 328 326 323 323 322 319 316 312 307 306 306 307 307 307 309 311
351 349 347 346 345 344 340 341 340 340 337 336 335 333 332 329 330 331 330 329 328 326 325 323 321 320 317 316 313 308 306 308 308 310 311 312 312 312
349 348 345 346 344 343 341 342 341 339 337 333 332 331 329 328 327 327 326 324 322 322 321 318 317 315 313 311 310 308 308 309 308 308 309 310 311 312
348 345 345 342 338 343 342 343 339 339 335 333 330 329 327 324 321 319 322 321 320 319 318 316 314 312 310 309 308 308 308 309 310 311 311 312 311 308
347 344 345 342 343 342 340 340 337 337 334 333 330 328 324 322 320 319 319 318 317 316 315 311 311 309 308 308 308 307 308 308 311 310 310 312 313 311
346 344 343 344 342 339 337 338 337 335 333 331 329 326 323 321 319 317 314 313 312 309 309 305 308 307 308 307 307 307 308 308 309 310 311 313 312 310
341 339 342 340 338 337 337 335 334 333 332 330 328 323 321 319 319 318 317 316 313 311 310 304 303 307 306 306 307 308 308 307 308 310 312 312 309 307
338 337 336 333 331 332 331 331 331 329 328 327 324 321 320 320 319 317 316 314 311 311 307 306 307 306 306 307 307 306 306 307 309 311 311 308 307 306
337 335 333 332 332 331 330 329 328 326 326 324 322 321 321 320 320 317 314 311 311 308 307 305 306 306 306 307 306 306 306 306 308 309 309 307 306 306
334 333 332 331 332 331 331 327 327 326 325 322 322 322 322 322 317 315 312 311 308 307 305 306 306 306 307 308 306 306 307 307 308 307 306 305 305 305
336 333 333 332 332 331 329 328 327 325 323 322 323 323 321 319 315 312 310 308 307 306 306 306 307 306 306 306 306 306 307 309 307 306 304 303 303 303
334 333 334 333 333 332 329 327 325 324 324 324 322 320 317 314 312 310 307 305 305 305 306 306 306 303 304 307 309 306 306 306 305 305 304 303 303 302
334 335 335 334 333 331 328 325 324 323 323 322 318 316 313 311 310 308 306 306 305 305 305 305 305 305 306 307 306 305 306 305 303 302 302 301 302 303
333 335 334 333 331 328 325 324 323 321 320 317 315 314 312 310 308 307 306 305 305 304 305 305 305 305 305 306 306 306 305 303 302 301 301 300 300 299

GFSNE_925_thetae_024.txt.gz
Theta_e
347 344 338 336 339 337 337 335 335 337 337 336 333 333 333 332 333 334 333 334 331 329 328 327 326 327 327 327 328 328 329 329 329 329 328 329 328 327
346 344 342 335 338 337 336 335 334 334 337 334 333 334 333 333 334 332 334 334 330 328 329 329 329 328 328 328 328 328 329 328 328 328 328 328 328 327
348 345 344 339 336 337 337 336 335 334 335 333 334 335 337 338 335 334 335 335 334 333 328 327 326 326 329 330 329 328 327 326 325 326 328 328 327 326
351 348 346 342 341 338 338 337 336 336 335 336 335 335 338 338 339 339 337 334 334 332 330 325 324 326 328 329 328 327 326 322 321 321 322 323 324 323
353 351 348 343 342 337 338 336 337 337 338 335 336 337 336 337 338 339 338 337 335 333 330 328 326 326 327 326 325 323 321 318 316 316 316 316 317 318
355 353 350 346 342 341 339 339 337 336 336 337 335 334 336 336 336 334 336 338 335 333 331 329 327 328 328 326 323 323 322 317 317 318 318 318 317 317
356 355 352 349 345 343 340 339 338 339 335 337 336 335 335 335 336 334 334 333 333 334 333 331 330 331 330 328 327 327 323 319 319 318 318 318 318 316
356 356 354 349 345 342 339 337 339 340 338 336 336 336 336 337 336 335 334 333 333 333 334 333 330 330 330 328 326 325 323 321 317 316 314 314 316 314
356 356 355 352 347 345 339 335 335 337 337 339 340 338 338 339 338 337 335 335 334 333 333 332 330 328 327 326 324 322 317 313 309 307 307 307 308 308
355 356 356 354 351 347 346 340 338 337 337 336 338 340 340 339 339 337 336 334 335 334 332 331 327 324 323 322 321 318 314 307 306 308 308 309 310 310
356 357 356 356 354 349 348 347 344 341 339 337 337 339 340 338 337 335 334 333 333 331 330 327 323 322 321 319 317 314 310 309 309 308 308 309 310 310
355 356 355 355 354 350 347 349 348 345 342 341 339 337 337 333 330 331 332 332 329 325 326 323 319 318 319 316 313 311 311 310 309 309 310 310 309 311
351 354 356 352 352 350 347 347 346 345 342 340 339 338 335 333 330 330 329 326 323 322 323 321 318 317 314 312 311 310 310 310 310 311 312 311 311 313
353 352 353 352 348 347 344 344 343 343 342 338 338 336 334 332 329 327 325 323 321 322 321 320 316 314 312 310 310 310 309 310 310 310 312 311 311 313
353 353 352 350 348 344 339 342 343 340 339 338 338 336 334 330 327 324 323 322 321 320 317 316 314 310 309 309 309 310 309 310 310 310 310 311 313 313
355 352 348 345 341 339 340 338 340 339 339 338 337 335 331 326 324 322 320 320 319 318 317 315 313 311 309 308 309 309 308 309 309 309 311 312 312 311
348 344 339 335 334 336 336 337 337 337 337 336 335 332 328 325 323 322 321 320 319 317 316 314 313 312 310 309 309 309 310 309 308 308 311 311 311 310
340 335 336 337 337 335 335 335 336 336 336 334 332 329 326 324 323 322 321 319 318 316 314 311 309 309 309 310 309 310 309 309 308 309 309 310 309 308
341 339 338 337 336 334 334 334 335 335 334 332 330 328 325 324 323 322 320 318 316 314 311 309 309 310 311 311 309 307 308 308 309 309 308 308 307 306
340 337 337 335 336 336 335 335 334 333 333 330 329 326 324 324 323 321 319 317 315 311 310 309 309 310 310 310 308 307 308 309 308 307 307 306 305 304
337 336 336 336 336 335 335 335 334 333 331 330 326 325 325 323 321 319 317 314 311 310 310 309 310 308 307 306 309 311 309 307 307 306 305 304 304 304
336 337 336 335 336 336 336 334 333 331 329 327 325 325 323 321 319 317 315 313 309 307 308 309 309 308 308 308 309 309 308 308 308 305 303 302 302 302
337 337 337 337 337 337 335 332 331 328 327 326 325 323 321 319 317 315 313 311 309 309 308 308 308 308 308 308 308 308 308 308 306 305 304 302 301 299

GFSNE_925_thetae_027.txt.gz
Theta_e
352 349 342 338 340 340 339 338 337 341 345 339 335 335 335 335 335 335 335 334 332 331 329 328 327 327 327 327 327 327 327 328 329 329 329 329 329 329
352 349 345 338 337 340 338 337 336 335 338 337 338 336 334 334 335 333 334 335 334 330 328 328 328 328 328 328 328 328 328 328 328 328 327 328 328 329
353 350 348 343 339 338 338 337 336 336 335 335 336 336 337 338 337 336 335 336 335 333 333 329 328 326 325 325 327 329 329 328 326 325 323 322 323 324
356 352 349 348 344 340 339 339 337 337 336 339 336 339 339 338 339 339 339 335 336 335 334 332 330 327 324 326 328 329 327 326 323 320 317 316 316 318
357 356 352 349 347 340 338 339 339 339 339 338 337 338 338 340 340 341 340 339 338 335 334 333 330 328 327 325 325 324 325 323 321 318 317 317 317 317
358 358 356 352 349 346 344 340 340 339 339 339 337 335 336 338 338 337 338 338 338 336 334 333 331 330 329 329 326 325 323 323 322 318 318 318 318 317
359 359 358 355 351 348 344 343 339 340 336 337 338 337 335 336 339 338 337 336 338 337 335 335 334 332 332 331 330 327 325 325 321 320 320 320 319 316
361 360 358 356 352 348 345 344 342 342 340 336 336 338 339 338 338 337 337 337 336 334 335 335 334 333 332 331 329 327 326 323 320 315 313 313 312 311
362 361 360 356 354 350 346 344 342 341 341 342 340 339 341 340 340 341 339 339 336 336 334 335 333 332 329 326 325 322 320 319 316 312 307 306 306 307
361 361 361 357 355 353 350 345 342 340 339 338 341 342 340 342 344 342 340 339 337 336 335 335 332 329 325 324 324 321 318 315 310 308 308 307 308 309
360 361 360 360 360 353 352 352 347 343 341 338 334 339 340 341 341 340 338 337 335 335 334 333 329 325 322 322 321 318 314 312 311 310 309 310 310 309
359 360 359 359 360 357 352 353 352 348 344 341 338 337 337 339 339 339 337 336 336 334 331 328 327 322 321 320 318 316 314 313 311 311 311 311 311 311
359 359 360 357 360 358 355 354 353 351 347 345 340 339 339 340 338 336 334 334 333 330 328 326 324 321 319 318 316 313 312 312 312 312 312 312 313 311
358 357 358 359 357 358 356 353 353 352 350 345 343 342 340 338 338 334 333 333 329 326 324 321 322 319 318 316 314 312 312 312 312 312 312 312 312 313
358 358 355 356 356 356 355 351 351 349 348 343 342 340 338 337 335 333 330 329 327 326 323 323 320 318 316 313 311 311 311 311 311 311 311 311 313 314
357 357 354 353 356 354 353 349 346 346 346 343 341 339 337 336 333 329 328 326 323 323 322 320 318 317 314 311 311 311 311 311 311 311 311 311 311 312
353 353 347 343 344 342 344 345 343 343 343 342 339 338 337 332 329 328 327 324 323 322 321 321 318 316 313 312 311 311 312 312 311 311 311 311 311 311
349 347 344 341 340 338 339 339 341 343 341 340 338 337 334 329 330 328 326 324 323 321 320 318 319 315 313 314 312 313 312 311 310 310 311 311 310 309
351 346 345 343 342 340 339 340 341 339 339 338 337 337 334 331 329 328 326 324 322 320 319 318 315 312 313 314 313 311 311 310 310 311 310 309 309 308
350 349 345 343 341 339 339 340 339 338 336 337 338 336 333 331 329 326 325 324 321 319 318 315 313 312 312 313 313 310 308 309 311 310 310 309 307 306
344 349 343 342 340 339 339 337 336 336 337 337 336 334 332 330 327 326 324 322 320 319 316 314 312 311 313 312 309 310 313 311 308 309 309 307 306 305
336 339 343 342 340 338 336 336 336 338 337 336 334 332 330 327 326 325 323 320 318 316 314 313 312 312 311 310 311 311 311 311 310 310 307 306 305 304
337 335 337 338 337 338 337 337 337 336 335 335 332 330 328 327 325 323 321 319 317 314 312 311 311 311 311 311 310 310 310 311 310 310 308 306 304 303

GFSNE_925_thetae_030.txt.gz
Theta_e
353 351 338 341 341 341 340 339 340 348 346 337 337 335 336 335 334 335 335 335 333 331 330 328 328 327 327 328 328 328 327 327 328 328 329 328 328 328
355 353 346 337 338 340 340 339 337 337 345 339 337 336 335 336 335 334 335 334 334 334 331 328 328 327 328 328 327 327 329 329 328 327 326 324 323 323
357 354 350 341 338 340 340 339 337 336 338 336 339 337 335 335 336 334 333 334 335 334 333 331 329 328 328 326 324 325 328 329 327 326 323 320 318 317
357 356 355 348 341 341 343 339 338 337 337 339 338 337 335 335 335 338 338 336 337 338 337 333 333 331 329 327 325 323 326 327 326 324 321 319 317 317
361 358 355 352 349 340 340 342 339 339 341 338 340 339 340 339 338 336 338 340 335 335 336 334 333 332 329 330 329 325 323 323 323 321 322 319 318 318
360 361 358 353 351 348 339 338 342 340 339 341 339 337 340 339 340 339 341 340 340 339 338 335 334 332 331 331 330 329 325 324 323 324 323 321 319 319
360 361 360 358 353 350 347 343 338 342 343 341 341 340 339 339 343 342 341 338 338 337 338 336 333 334 334 333 331 330 328 325 324 325 323 321 320 318
363 360 361 360 358 353 350 346 342 340 343 342 341 341 340 338 340 340 339 338 339 336 337 336 335 334 335 335 332 330 329 327 326 319 317 314 312 309
363 363 362 361 359 357 353 350 345 344 338 338 339 339 340 339 340 340 340 339 338 337 334 335 335 334 332 327 326 324 322 320 316 311 308 307 306 305
362 362 362 361 360 358 354 350 349 345 343 342 340 338 338 342 341 341 341 339 338 338 337 335 334 334 330 325 324 323 321 316 312 311 310 310 310 310
362 362 363 362 361 359 355 351 348 347 344 343 342 343 341 337 342 343 341 340 340 338 335 336 335 334 326 324 323 321 318 315 313 312 311 311 311 310
360 362 362 362 362 361 357 354 352 349 347 344 341 341 339 342 342 343 341 339 339 337 335 335 334 328 324 321 322 319 316 315 313 312 312 311 311 310
360 360 360 361 362 362 360 356 355 353 349 346 343 341 338 337 338 338 339 339 338 337 334 331 327 325 321 320 319 318 314 313 312 313 312 312 312 312
363 360 359 360 360 361 361 358 356 355 352 347 344 340 339 338 338 338 339 339 337 334 331 327 325 324 320 319 319 316 313 312 312 311 312 312 312 313
364 363 361 359 359 359 360 359 356 355 354 349 346 342 341 340 338 340 339 336 334 332 328 326 323 322 319 318 316 313 311 312 312 311 312 312 312 310
365 364 363 361 357 356 357 358 356 354 354 349 347 344 343 341 340 339 335 333 332 328 326 323 319 316 317 316 314 312 311 313 311 311 313 311 310 311
362 361 360 358 358 352 348 347 350 353 353 350 346 343 342 340 338 336 332 330 328 326 325 322 320 318 315 313 313 312 311 311 312 313 311 310 310 312
356 357 359 359 353 353 351 347 348 351 351 349 345 343 340 336 333 332 330 329 327 325 325 324 322 319 317 314 312 310 312 313 313 311 310 311 312 310
355 354 355 357 355 351 350 348 347 349 349 346 343 341 337 335 332 329 329 328 327 325 324 324 322 319 318 318 314 314 313 314 310 309 311 312 310 309
345 351 353 353 353 350 348 348 348 347 345 343 340 338 336 334 332 331 329 327 326 324 323 321 321 319 315 314 315 313 314 312 308 310 312 310 309 307
333 334 335 337 342 347 348 347 347 346 344 341 338 335 335 334 332 331 329 327 325 324 323 321 317 315 313 313 312 310 310 309 310 311 310 309 308 308
336 337 337 337 337 338 340 343 344 344 343 341 337 336 336 334 332 330 328 326 324 323 321 319 316 314 312 313 314 311 310 312 311 310 310 310 308 305
334 337 336 335 332 333 335 337 338 337 337 337 337 337 335 333 330 327 326 324 321 320 318 316 313 311 312 312 312 311 313 311 310 312 311 309 306 306

GFSNE_925_thetae_033.txt.gz
Theta_e
348 345 341 339 340 342 340 339 339 337 338 337 337 336 335 335 335 335 334 333 333 331 331 329 328 327 327 327 328 328 327 327 327 328 328 328 326 325
355 350 339 339 340 342 341 339 338 337 334 341 336 336 336 335 335 334 334 334 334 333 333 332 328 327 327 327 326 325 324 327 328 328 327 326 323 319
357 355 352 341 336 339 342 339 339 337 336 336 337 337 335 335 335 335 335 335 334 334 334 332 331 329 327 328 328 324 324 325 328 327 326 322 319 317
358 357 355 352 345 334 340 340 338 337 336 335 339 339 335 335 334 335 334 332 334 334 335 336 335 333 331 330 328 327 325 324 326 325 323 320 319 318
356 357 356 354 351 348 337 343 340 338 337 336 339 337 335 335 335 335 335 335 336 337 338 337 336 334 332 331 330 329 328 324 323 324 321 322 320 321
357 360 357 356 353 351 349 339 342 340 338 340 337 340 339 336 336 337 337 335 337 338 336 336 337 335 333 333 331 330 329 327 325 324 323 325 322 322
356 356 360 359 356 353 350 347 339 342 341 340 340 338 337 341 342 339 338 338 338 338 338 338 337 336 334 333 333 331 329 329 327 326 325 323 319 317
360 358 357 360 360 358 353 350 344 337 342 341 339 340 339 337 339 341 340 340 340 338 338 338 338 337 334 334 334 334 331 329 328 325 321 312 309 308
360 360 359 358 360 360 357 353 351 349 340 340 341 339 338 339 338 341 341 340 339 337 336 336 338 336 335 334 328 326 325 324 322 319 311 309 309 310
361 361 360 359 359 360 359 356 352 351 350 344 339 341 340 338 337 338 340 340 339 337 336 335 335 334 334 333 326 324 323 322 318 312 311 311 310 310
361 361 362 361 360 359 359 356 353 351 351 351 346 341 338 339 342 342 341 340 339 338 337 337 336 335 333 331 324 323 322 320 315 313 312 311 311 310
361 361 361 361 361 361 360 358 355 352 350 348 346 344 342 341 341 341 342 340 339 338 337 335 334 334 330 325 323 321 321 317 314 313 312 312 311 310
362 361 360 359 361 362 362 359 358 356 351 349 347 345 342 344 344 342 339 341 340 337 336 335 335 335 328 322 322 320 318 316 315 314 312 312 311 312
364 363 362 360 359 359 361 362 361 357 354 349 348 345 343 340 342 342 339 342 341 338 336 334 333 333 325 320 319 319 318 315 314 312 311 311 312 313
366 365 364 363 362 360 359 359 361 360 356 354 350 349 345 342 340 340 341 342 340 338 337 335 332 327 324 321 319 317 315 312 311 311 311 312 312 311
367 367 366 365 364 362 360 358 357 354 356 357 355 351 348 341 339 338 338 338 337 337 337 334 330 326 321 320 319 317 315 311 311 311 310 312 310 309
357 357 357 360 359 360 358 354 352 352 352 355 356 354 348 341 340 339 338 337 336 331 328 328 326 326 323 317 316 315 314 312 312 311 313 311 310 310
347 354 355 357 360 360 360 359 354 349 349 351 354 354 348 342 342 340 338 336 334 331 329 326 324 320 317 315 313 311 311 312 311 311 313 310 310 311
343 349 352 353 356 358 358 357 357 354 351 349 351 353 348 345 343 339 336 334 331 330 329 325 323 320 315 314 314 312 310 309 312 313 309 309 311 310
333 334 336 337 338 337 337 338 339 343 349 350 350 351 350 345 341 337 333 333 332 329 326 324 322 320 319 316 315 313 314 313 312 310 309 310 311 309
335 336 336 336 337 337 336 337 337 337 338 340 342 346 349 344 338 336 334 332 329 327 325 323 323 323 321 318 313 311 313 313 313 311 309 310 311 309
332 334 336 334 333 332 331 332 333 334 333 337 340 338 333 332 332 332 330 328 326 325 324 322 323 321 319 314 311 311 311 310 311 310 310 310 310 306
335 336 336 334 334 335 333 330 333 330 331 328 329 328 329 328 331 331 328 326 325 323 322 320 317 317 314 313 312 312 312 311 310 312 311 310 310 309

GFSNE_925_thetae_036.txt.gz
Theta_e
348 348 344 340 340 341 340 339 338 335 333 338 336 335 336 335 336 335 334 332 331 330 330 329 328 327 327 327 327 327 327 326 326 327 328 327 326 325
353 348 345 341 339 340 342 340 339 337 332 337 337 336 335 335 335 336 335 334 333 333 332 331 331 328 327 326 327 327 326 324 326 328 328 326 324 319
354 354 350 341 338 339 340 341 340 338 335 335 336 337 336 335 335 335 335 334 333 333 333 333 333 331 329 328 329 328 326 324 324 326 326 324 320 319
356 355 355 353 348 336 338 339 341 339 337 335 335 337 336 336 335 335 334 334 334 333 334 333 334 333 332 331 331 329 327 326 323 324 323 322 320 320
356 356 355 355 354 351 338 337 338 340 338 337 335 335 338 336 336 335 335 334 334 333 333 334 335 337 336 334 332 330 328 328 326 324 323 323 322 322
354 355 355 356 356 354 352 345 337 339 341 338 337 336 338 337 335 336 335 335 334 334 334 336 337 337 335 335 333 332 330 328 327 325 325 325 325 323
355 355 356 356 355 355 354 353 349 345 340 342 339 338 338 337 336 336 335 335 335 336 336 337 338 337 337 335 333 332 332 330 328 327 326 324 323 317
356 355 354 355 355 356 358 357 356 351 345 340 340 338 337 338 338 337 337 337 336 337 337 337 338 338 337 337 335 333 333 332 329 328 326 323 311 306
357 357 357 356 355 355 356 358 358 357 354 347 340 339 338 338 337 338 339 339 338 338 338 338 337 337 337 337 335 334 331 329 328 326 321 312 309 309
359 359 358 358 357 356 356 356 357 357 356 354 345 342 340 338 338 337 337 338 338 338 338 338 337 336 335 337 335 334 328 325 323 322 316 311 310 310
361 360 360 359 359 358 357 357 356 356 355 357 356 355 349 342 340 337 338 338 338 338 339 338 336 336 336 336 334 333 326 324 322 320 313 311 311 310
360 361 361 360 360 360 359 358 357 356 354 352 352 353 352 349 343 340 339 338 338 337 339 336 335 335 333 334 334 332 326 323 321 317 313 311 311 310
361 361 361 361 360 360 360 360 359 358 358 356 352 349 348 346 342 342 341 340 339 338 338 337 335 335 334 329 331 330 324 322 321 316 313 312 311 311
363 363 363 362 361 361 360 359 360 361 359 358 354 351 350 346 344 343 342 342 341 339 339 338 336 334 332 323 323 325 324 322 320 316 314 313 312 311
366 365 365 364 363 363 362 361 360 358 355 357 358 356 352 350 347 344 343 341 341 340 339 338 337 336 331 329 324 322 322 321 319 316 314 312 312 312
368 367 367 366 365 364 362 361 360 358 352 354 356 358 357 354 349 346 342 341 341 340 339 339 338 334 331 331 329 321 319 316 316 315 312 311 312 311
359 357 357 356 356 357 359 359 359 357 354 350 351 354 356 356 352 347 343 342 341 340 336 334 333 334 332 331 320 321 315 313 312 312 310 310 311 310
346 347 348 350 352 355 357 357 354 350 351 350 349 350 351 353 354 349 344 341 341 341 338 330 324 324 325 324 324 320 316 315 311 311 311 312 310 310
337 335 336 338 338 337 337 337 336 333 334 335 337 342 345 348 349 347 345 342 341 342 339 328 325 329 325 322 317 316 316 314 312 311 311 312 310 310
334 335 335 335 335 335 334 334 333 332 333 333 335 336 338 340 340 340 341 344 343 341 339 329 330 328 324 320 313 314 313 311 311 311 313 311 310 310
332 332 334 334 333 333 333 332 331 332 330 330 334 336 332 332 331 331 334 337 338 340 336 328 326 324 322 318 314 314 314 311 309 311 311 309 310 310
335 334 335 335 334 334 335 335 335 332 331 330 329 328 329 330 330 330 328 328 327 325 324 323 323 321 320 318 311 311 314 314 314 311 312 310 309 308
331 333 335 335 335 336 336 336 336 333 332 329 328 329 330 331 329 328 327 325 323 322 322 320 320 322 318 316 313 310 311 312 313 313 312 311 309 309

GFSNE_925_thetae_039.txt.gz
Theta_e
348 348 346 342 341 341 342 339 337 333 331 338 338 337 336 335 335 335 335 334 332 331 328 327 327 327 327 326 326 326 327 327 326 326 327 327 327 325
350 350 348 347 342 340 340 341 339 336 331 336 337 337 336 335 335 335 335 335 334 332 332 330 330 329 328 327 327 327 327 326 324 325 327 327 326 322
351 351 351 348 345 344 340 340 341 339 334 337 335 336 337 337 336 335 335 335 335 334 332 332 332 331 331 330 328 327 328 327 325 324 325 325 323 319
351 353 352 353 352 347 342 340 339 340 339 336 337 336 335 337 336 335 334 334 334 334 333 332 333 333 332 332 331 331 329 328 326 324 324 323 322 321
351 351 353 354 353 352 352 349 338 338 338 339 338 337 336 335 336 336 335 335 334 334 334 333 333 333 333 333 334 334 331 330 328 326 324 324 323 322
353 352 351 353 354 352 352 352 351 346 337 338 339 338 337 336 336 336 336 335 335 334 334 334 334 333 333 335 337 336 334 331 330 328 326 324 323 322
354 353 353 352 351 351 352 352 352 352 349 342 337 338 338 337 337 336 336 336 335 335 334 334 334 333 335 335 336 336 334 333 331 330 327 325 324 323
355 354 353 353 353 352 351 352 353 352 348 344 344 340 338 337 337 337 336 335 334 334 334 334 334 335 335 336 336 336 335 333 333 332 329 327 325 319
357 356 355 354 354 354 354 354 353 354 355 352 346 346 343 341 338 336 336 336 335 335 336 336 336 337 336 336 336 336 336 334 333 333 330 327 322 309
357 356 357 356 356 356 356 355 355 355 354 355 352 352 349 348 342 340 338 337 336 336 336 336 336 337 336 337 336 336 336 335 334 330 328 325 314 309
357 358 357 357 357 357 357 356 356 356 356 357 356 356 354 352 348 341 337 335 336 337 337 337 337 337 337 337 337 335 337 335 333 327 324 322 311 310
357 358 358 358 358 359 358 357 356 357 356 355 355 356 357 356 354 345 342 339 337 340 339 336 337 336 335 335 337 336 336 334 333 325 323 319 311 310
357 358 358 359 360 360 360 359 358 359 358 358 357 355 353 353 355 352 352 342 341 341 341 339 337 336 336 334 335 335 335 333 330 326 323 318 312 311
360 361 361 361 361 361 360 360 360 360 358 357 358 358 357 355 353 351 350 351 347 344 346 341 338 337 334 329 328 331 334 333 331 330 325 319 312 311
362 363 364 363 363 363 362 362 361 359 355 352 355 356 357 358 357 354 351 348 346 344 343 342 339 338 336 334 330 326 327 330 330 330 325 320 314 312
365 365 365 365 365 364 363 363 360 359 358 352 352 354 355 355 356 356 353 351 346 345 344 342 341 339 336 335 332 326 328 325 326 327 323 320 315 313
365 362 360 358 356 354 352 354 357 355 351 347 346 345 346 346 347 348 350 350 351 349 345 345 342 339 338 335 331 328 321 324 329 327 322 318 315 313
354 351 347 345 347 348 348 345 342 337 333 333 333 333 334 335 337 338 340 344 346 345 344 344 344 337 336 332 332 322 321 325 324 323 316 313 312 311
338 337 335 335 335 336 336 335 333 331 332 331 331 331 333 334 335 336 336 335 336 337 338 340 343 336 331 330 321 324 321 317 314 311 312 312 310 311
334 334 334 332 332 333 332 333 332 332 332 331 330 330 330 330 329 328 328 327 326 328 332 337 339 336 333 330 316 316 324 316 311 310 309 310 310 310
332 332 332 333 333 333 334 334 335 334 334 331 329 328 328 329 329 328 327 327 324 322 319 318 318 321 322 325 317 312 313 314 312 310 310 310 308 308
330 332 333 331 333 334 334 335 335 334 333 332 330 329 328 329 329 327 326 324 322 320 318 320 323 322 320 315 314 312 311 311 312 311 310 310 310 306
321 323 324 327 328 328 330 333 335 335 334 332 332 331 330 328 328 327 325 323 323 321 320 320 321 321 316 314 313 313 314 310 310 311 311 311 310 309

GFSNE_925_thetae_042.txt.gz
Theta_e
348 347 347 347 343 339 337 340 338 341 339 337 337 337 337 336 335 334 335 335 334 332 330 328 326 325 326 326 326 326 326 326 327 326 325 326 327 327
350 350 349 347 347 344 341 340 340 337 339 335 336 336 337 337 336 335 335 335 334 335 333 331 330 328 328 328 327 327 326 326 327 325 324 326 326 325
350 351 350 350 349 347 346 343 339 339 336 338 338 338 336 336 336 336 336 335 335 334 334 334 332 331 330 329 330 329 328 327 327 326 323 324 324 322
352 350 349 350 350 351 351 348 344 341 338 338 339 339 339 338 336 335 336 336 335 335 334 334 334 333 331 331 331 331 331 329 328 328 325 324 324 322
353 353 351 349 351 351 351 351 350 348 341 338 337 337 337 338 338 336 335 335 335 335 335 334 334 334 333 332 332 332 332 332 331 329 328 325 324 323
352 353 353 352 350 350 351 351 351 351 351 348 341 338 336 336 337 337 337 336 335 335 335 335 335 334 334 333 333 333 333 334 333 331 329 327 325 323
353 353 353 353 352 351 351 350 349 351 349 347 344 342 341 338 337 337 336 337 336 336 335 335 335 335 334 334 334 333 333 335 336 335 330 328 327 324
353 351 351 352 353 352 352 351 352 351 349 348 347 347 346 344 343 341 338 337 339 338 335 335 335 335 334 335 334 334 334 333 334 335 333 330 328 325
353 354 354 355 354 353 353 353 353 353 354 353 351 349 348 348 347 343 340 339 340 340 337 336 335 334 334 335 334 335 335 334 334 335 334 331 330 326
350 352 353 354 353 354 354 355 354 355 355 355 354 354 353 353 351 349 347 344 341 340 338 337 338 336 336 335 335 335 335 336 335 335 334 331 332 327
353 352 353 353 353 354 354 355 355 355 356 357 357 357 357 357 355 351 347 340 338 340 340 337 338 338 336 336 336 337 335 335 336 336 335 332 330 327
353 354 355 355 356 356 356 356 356 356 357 356 357 357 358 358 358 356 352 347 346 344 344 340 340 338 338 337 336 336 336 336 336 336 335 332 328 325
354 355 355 356 357 357 358 357 357 358 357 358 358 357 357 357 358 357 357 352 347 346 348 346 343 340 337 340 338 336 336 336 336 336 334 330 329 323
355 356 357 358 359 359 358 359 359 359 358 356 356 357 357 356 357 357 355 352 351 352 353 350 344 343 340 339 338 336 333 334 334 334 331 329 327 322
359 359 359 360 361 362 362 362 361 359 357 350 351 353 354 355 354 354 353 354 353 351 348 346 345 346 343 341 341 339 331 330 331 330 326 329 325 321
361 360 359 360 361 362 361 360 357 356 354 353 351 350 349 345 343 338 340 341 342 342 343 345 347 345 343 344 342 340 332 331 328 328 326 325 323 322
362 358 357 356 355 354 352 351 353 353 348 342 337 337 334 332 332 334 336 336 335 335 336 335 336 340 343 343 343 341 338 330 330 328 325 321 320 322
356 353 351 347 346 345 345 342 341 337 333 332 331 331 331 332 332 332 331 330 330 329 328 327 327 329 333 337 342 341 341 334 328 326 324 320 316 321
344 339 336 334 333 334 334 333 332 331 331 332 331 330 329 331 330 330 329 328 325 324 322 321 321 325 333 338 327 325 332 327 324 321 321 321 318 321
333 333 332 331 331 332 332 332 333 334 334 333 332 329 327 328 329 329 329 327 326 324 322 320 319 318 320 321 312 311 321 318 317 312 312 316 314 316
331 331 331 331 331 332 332 332 333 332 333 332 332 330 328 329 328 328 327 324 323 322 321 320 319 320 318 315 312 310 312 314 318 317 314 312 308 308
327 327 327 328 327 328 328 328 330 330 330 333 332 331 331 330 328 327 326 322 323 322 321 321 320 320 317 315 313 311 312 316 318 318 316 315 310 309
321 321 319 320 321 322 323 324 326 328 330 331 331 331 332 332 329 328 327 324 323 324 321 322 320 318 318 316 313 313 313 314 312 312 310 310 310 310

GFSNE_925_thetae_045.txt.gz
Theta_e
354 354 351 350 348 345 342 341 343 346 344 343 342 338 337 337 337 336 335 335 334 335 334 331 330 327 324 324 325 325 326 326 326 327 326 324 325 327
353 354 353 350 350 348 347 344 343 343 345 342 342 342 339 337 336 336 336 335 335 335 334 335 333 331 330 328 327 327 326 326 326 327 326 323 324 325
356 355 354 354 352 351 349 347 346 344 343 341 343 341 339 339 338 337 336 335 337 336 335 334 334 334 333 331 330 329 329 328 327 327 327 324 324 324
356 356 355 354 354 354 353 352 349 348 345 345 342 342 342 342 338 338 338 339 338 337 335 335 335 334 334 334 332 331 330 330 330 329 328 327 324 324
355 357 357 356 356 353 354 353 352 352 350 347 347 345 343 341 341 340 338 338 338 337 336 335 334 335 334 334 334 333 332 331 331 331 331 328 326 325
356 356 356 357 357 357 356 356 355 354 352 352 350 348 348 347 345 344 343 343 342 341 340 338 337 336 335 335 334 334 333 332 332 332 332 331 329 327
357 357 357 356 355 354 356 356 356 355 354 352 351 350 349 349 348 347 347 347 346 345 344 343 342 340 338 337 335 334 334 333 333 332 332 332 332 329
357 357 356 353 351 351 350 351 354 356 356 355 354 354 356 355 354 353 352 351 353 351 348 345 343 344 343 342 340 340 335 334 334 333 332 334 334 330
356 357 357 356 355 354 356 354 353 353 353 353 356 357 358 357 357 357 356 356 355 354 351 350 349 347 345 345 344 341 342 337 334 334 333 333 335 332
353 353 354 354 354 355 355 355 356 356 356 353 352 353 355 357 358 358 357 355 352 352 351 348 349 349 348 347 344 341 339 339 339 334 334 333 334 334
353 354 354 354 354 352 353 353 354 356 356 356 356 357 356 356 355 353 350 351 351 351 353 349 349 349 349 348 347 344 340 338 339 340 335 334 334 334
354 355 354 353 354 353 354 355 357 358 359 361 362 360 358 358 358 357 356 348 349 351 354 353 351 348 347 348 347 345 343 339 339 337 337 335 335 332
355 355 356 356 355 354 354 356 358 359 360 359 358 358 358 358 359 358 358 356 352 352 354 352 351 350 349 347 346 344 343 343 341 341 339 336 334 331
358 359 359 358 357 357 357 357 358 358 357 355 355 356 356 356 357 357 356 355 354 353 352 349 348 347 347 346 345 344 344 341 339 337 338 336 335 330
358 360 360 359 359 358 359 361 360 359 357 350 350 351 352 352 352 351 351 346 344 343 343 344 345 343 344 344 343 343 342 343 337 337 333 328 327 324
358 356 357 357 358 359 360 361 360 357 355 352 350 350 349 348 346 342 340 339 337 336 335 334 334 334 334 334 336 337 338 340 339 334 334 329 324 323
360 355 354 354 353 354 354 352 352 353 351 349 347 345 342 339 338 337 336 335 334 333 331 329 328 326 326 329 332 333 332 336 338 338 332 328 324 321
357 352 351 351 350 348 346 345 344 342 342 340 339 338 336 336 335 335 334 333 332 330 329 328 326 322 321 324 324 314 317 322 330 336 331 327 319 316
349 346 344 340 337 336 338 339 340 337 336 336 337 336 336 334 333 334 334 332 332 329 328 327 325 321 321 321 319 313 313 320 320 324 322 319 316 314
339 336 336 336 336 337 337 337 337 337 337 336 336 336 335 334 334 334 334 329 327 327 329 327 325 320 319 318 314 312 313 313 313 311 311 313 314 315
333 332 333 332 331 330 330 330 331 331 331 331 332 335 335 333 334 332 330 327 325 327 328 326 325 320 323 320 316 313 310 314 313 313 315 315 314 312
328 324 323 323 325 326 326 326 328 329 330 331 331 332 332 333 333 333 333 329 327 326 327 326 325 325 324 321 320 316 315 317 317 319 317 316 315 313
317 318 317 319 319 320 321 322 322 322 324 325 327 328 329 331 331 332 331 330 329 329 328 327 325 324 321 320 319 316 314 314 313 315 315 315 312 311

GFSNE_925_thetae_048.txt.gz
Theta_e
355 355 353 347 348 346 345 344 343 347 345 346 341 343 341 342 343 344 345 344 341 336 334 334 333 331 328 324 324 324 325 325 325 326 326 327 325 324
353 354 355 348 349 349 348 346 345 345 346 342 343 343 345 344 342 342 343 343 342 338 336 335 334 334 333 331 329 326 325 326 326 326 326 327 325 324
356 355 356 356 352 349 348 348 347 346 345 342 341 341 347 348 346 346 345 345 342 341 338 336 335 335 334 334 332 331 330 328 328 327 327 327 327 323
356 356 356 354 356 355 352 351 348 347 346 349 346 344 343 344 345 347 347 344 341 340 340 339 337 335 335 335 334 334 333 331 330 329 329 328 327 325
357 356 357 357 357 355 354 352 352 354 354 353 352 348 346 347 348 348 349 347 347 345 343 341 340 338 336 335 335 334 334 334 332 331 330 330 329 328
357 357 357 358 359 360 359 359 358 357 354 353 351 348 346 345 347 349 350 350 349 349 349 348 346 343 342 341 339 335 335 334 334 333 331 330 330 330
356 358 358 358 359 359 359 358 358 358 354 352 351 350 350 351 352 352 354 353 353 353 353 353 352 351 349 346 345 344 341 336 334 334 333 331 331 331
357 357 358 358 358 357 356 353 353 358 360 358 355 353 357 357 355 355 354 354 357 357 359 358 357 356 355 354 352 349 346 345 344 338 334 333 332 331
355 356 355 352 354 356 357 357 356 354 353 354 357 358 358 357 358 360 359 361 362 361 360 359 358 357 356 355 354 353 350 347 346 342 343 338 333 331
352 353 354 354 353 355 356 356 356 356 357 357 356 356 356 356 359 362 360 360 360 358 357 357 357 357 356 356 355 354 352 350 348 346 342 341 340 335
354 354 355 355 355 355 355 354 354 354 352 352 353 355 356 358 358 357 355 357 357 359 359 358 358 359 357 356 353 350 350 349 348 347 345 342 340 339
354 356 355 354 355 355 355 354 355 355 357 360 363 363 363 362 362 362 357 355 356 356 359 357 357 355 353 349 346 345 344 346 345 344 344 344 342 337
352 351 352 353 354 354 353 355 357 359 362 363 362 363 363 362 363 361 359 358 356 356 357 355 354 350 347 346 344 343 343 343 345 345 344 342 343 340
353 353 358 359 359 358 357 356 356 355 356 359 358 357 357 358 357 356 356 356 355 355 354 352 349 345 342 339 339 337 336 336 338 340 342 341 341 341
357 360 361 362 361 360 359 359 357 355 357 355 353 354 354 354 354 356 355 354 350 345 342 342 339 337 335 333 333 333 334 333 332 330 329 337 339 339
354 357 359 360 361 361 361 359 359 360 359 356 353 352 353 355 355 351 344 341 340 339 339 336 335 333 332 330 330 331 323 323 324 327 328 330 337 335
358 359 359 359 360 360 357 357 356 354 352 352 351 353 354 351 345 341 340 340 338 338 336 334 333 332 329 328 329 323 317 318 321 320 325 331 334 329
355 360 360 358 356 355 353 350 349 349 349 349 349 347 344 341 340 339 338 338 338 338 335 334 332 330 327 327 323 319 313 314 315 317 320 319 317 319
357 354 352 349 344 344 344 344 345 345 344 342 341 341 340 340 338 339 339 338 338 334 333 334 332 330 327 329 324 317 312 314 313 314 314 313 312 311
346 343 341 339 340 340 341 342 343 342 340 338 338 339 340 340 339 338 338 337 334 332 333 333 331 329 327 327 323 317 312 314 314 314 313 312 311 311
347 344 342 339 337 335 335 335 335 335 335 335 336 337 337 336 336 335 335 333 331 332 333 332 331 326 327 327 325 320 315 315 315 316 314 314 313 312
335 332 331 329 328 329 329 329 330 332 331 331 332 334 335 335 335 335 334 334 332 332 332 332 331 329 329 328 327 323 320 316 316 316 316 315 314 314
325 327 326 325 324 324 324 324 324 325 326 327 329 330 331 332 334 334 334 334 333 331 331 332 331 328 326 324 323 325 323 320 319 319 315 311 316 314

GFSNE_925_thetae_051.txt.gz
Theta_e
354 354 353 348 347 346 345 345 345 349 347 351 342 344 342 342 343 345 344 345 345 344 341 336 334 334 332 331 326 324 324 325 325 325 326 326 326 327
352 354 354 351 348 349 348 346 345 345 347 343 344 343 344 344 344 345 345 344 344 344 343 341 339 336 334 334 332 331 328 325 324 325 325 326 326 327
356 354 355 355 353 348 348 348 347 347 346 345 343 343 346 350 349 349 348 347 347 345 343 342 341 339 337 335 334 333 332 330 329 326 326 326 326 327
356 355 355 355 357 356 355 352 349 349 349 351 348 349 350 349 347 349 350 350 348 347 345 343 343 342 341 340 339 336 335 333 331 330 329 327 327 327
355 356 356 356 357 356 356 352 351 354 355 356 355 353 350 350 349 349 351 353 353 351 349 348 346 345 344 343 343 343 340 337 335 334 331 329 328 328
355 356 356 357 358 360 359 359 358 357 354 354 353 353 350 347 348 351 352 352 353 354 354 353 353 352 352 351 349 348 347 344 342 339 335 334 330 329
356 356 356 357 357 359 359 359 358 359 357 354 352 350 349 350 354 354 354 356 353 351 353 358 360 360 359 357 356 355 354 352 348 345 345 343 335 333
358 358 357 357 357 357 358 358 357 360 363 359 355 354 355 356 355 355 355 355 360 358 362 362 360 361 359 358 358 358 356 354 353 351 348 347 344 343
355 358 358 353 355 358 360 359 357 355 355 354 357 358 357 358 359 360 357 361 365 363 361 361 360 359 359 358 357 357 357 356 355 353 352 350 348 346
355 356 357 356 355 356 358 357 359 361 360 358 357 357 359 358 359 360 361 362 361 361 360 361 360 361 361 359 355 352 349 347 346 349 345 347 348 347
355 354 355 357 358 357 354 356 357 357 352 351 351 351 352 352 353 355 358 360 360 360 361 361 361 359 356 351 349 347 346 345 343 343 343 344 344 343
356 357 356 355 356 357 358 358 360 360 357 356 357 361 365 364 363 362 360 359 360 359 360 359 358 356 351 347 345 343 339 338 336 337 338 340 343 344
353 350 351 353 353 353 352 355 357 357 357 360 362 364 363 364 362 361 361 361 360 357 358 358 356 349 346 344 339 337 335 335 336 334 333 336 337 337
352 346 347 348 349 352 353 354 356 355 356 358 360 362 362 361 359 360 359 357 359 358 358 351 348 344 341 338 337 335 334 332 327 329 327 329 328 330
355 352 351 353 361 360 359 360 359 357 358 360 361 359 357 357 357 356 358 358 354 353 349 344 343 340 337 335 334 333 331 326 326 324 324 322 323 327
357 355 356 359 361 363 362 362 360 361 362 359 358 356 355 354 355 358 355 350 344 342 342 341 338 338 336 333 332 331 327 323 323 320 318 320 323 329
357 357 357 359 361 362 362 363 363 360 357 357 354 353 352 355 356 352 345 342 342 341 341 340 338 337 334 332 330 328 322 321 319 316 317 316 316 319
357 360 362 362 362 363 362 360 357 355 353 352 353 353 353 351 347 344 342 341 342 341 341 337 337 336 334 328 325 324 320 319 317 315 315 314 312 313
362 361 364 362 359 356 354 352 350 350 349 350 347 347 346 344 342 341 341 341 341 341 338 336 337 335 334 333 328 325 318 317 316 314 313 312 311 312
361 356 352 348 346 345 343 342 344 347 346 345 344 343 342 342 342 342 341 341 339 338 336 336 336 335 332 331 329 326 319 317 316 314 312 311 311 311
350 347 344 343 343 342 342 341 341 340 340 339 338 339 340 339 339 338 337 335 335 335 336 336 335 333 330 331 331 329 321 317 316 317 314 314 313 312
349 347 343 340 337 338 336 336 336 335 335 336 336 336 336 336 336 336 335 335 335 335 334 333 334 334 333 332 330 329 324 321 317 316 316 316 315 314
340 337 335 333 332 332 332 331 331 331 331 331 332 332 332 332 332 333 334 334 335 335 334 333 332 334 332 330 325 326 326 324 322 321 319 310 315 315

GFSNE_925_thetae_054.txt.gz
Theta_e
353 352 348 351 350 346 345 344 347 354 354 346 343 344 343 342 342 344 343 344 345 345 345 345 344 341 337 334 332 330 326 324 325 325 326 326 326 326
354 356 353 350 352 350 349 348 346 345 354 346 346 345 346 345 345 345 344 342 344 345 345 344 343 342 341 340 338 335 333 331 329 326 325 325 325 325
355 356 356 353 353 355 351 348 348 348 351 348 348 347 347 347 347 346 346 346 348 348 348 347 346 344 343 342 341 340 339 336 334 332 330 328 326 325
353 352 357 357 356 351 353 355 355 354 353 354 351 348 349 353 352 351 350 350 349 350 350 351 349 347 345 343 344 344 342 341 340 338 335 332 330 328
357 356 354 355 356 360 358 356 353 353 354 353 356 358 355 352 351 351 351 350 351 351 354 354 353 352 351 349 348 347 347 347 346 344 342 339 336 332
357 355 357 358 358 358 357 356 356 357 355 356 355 356 356 353 352 356 355 353 354 356 355 350 353 361 361 360 358 356 356 354 353 352 350 346 342 340
357 357 357 358 358 358 361 361 360 360 361 361 361 358 355 355 356 356 359 358 355 352 353 362 363 360 361 360 359 358 358 356 356 355 354 352 348 343
359 358 359 359 356 355 357 358 359 359 359 361 363 361 358 357 357 355 356 358 358 359 364 361 362 361 361 359 358 359 359 355 351 349 347 345 350 351
360 360 360 359 357 357 356 356 356 356 356 356 357 357 356 354 354 359 360 360 362 363 361 362 362 361 360 362 360 354 350 346 345 344 343 343 343 344
356 356 357 358 355 357 359 361 360 359 357 357 357 357 357 356 356 356 359 360 358 360 360 361 361 362 361 356 351 349 345 340 338 336 335 337 338 338
351 351 356 360 358 353 350 351 352 354 358 358 357 353 353 353 354 359 356 354 361 361 360 360 360 359 356 353 349 342 338 337 335 335 333 332 332 331
354 354 354 351 350 355 359 359 360 359 359 359 358 357 359 363 364 365 365 358 360 361 360 358 358 357 353 348 343 337 336 334 334 329 328 327 326 328
357 357 357 356 353 352 353 354 356 357 360 360 358 359 361 360 362 361 360 360 360 360 360 358 357 349 346 343 340 337 334 334 331 326 325 323 322 322
358 357 356 353 353 351 351 352 353 353 355 355 357 359 360 363 362 360 361 360 359 358 356 350 354 345 341 340 338 335 333 331 326 324 321 318 319 319
359 358 355 353 350 351 351 351 353 354 354 358 360 361 362 361 360 359 358 357 358 354 353 352 346 342 338 338 335 333 329 326 324 320 317 317 316 314
360 359 358 354 357 362 363 361 359 360 360 361 361 361 360 359 357 355 357 356 353 343 343 345 340 338 337 336 332 332 326 323 321 317 315 315 314 315
360 358 358 357 356 359 362 364 363 361 361 361 360 358 356 355 354 354 353 351 343 343 342 343 339 338 336 333 329 327 324 321 319 316 314 313 311 312
356 359 359 359 359 360 362 363 363 363 362 359 357 354 352 354 355 349 344 342 341 342 344 339 337 338 337 333 328 326 324 320 318 314 313 312 311 311
358 358 361 363 364 364 363 361 360 358 355 352 353 352 348 350 346 343 342 343 343 342 340 337 336 339 338 336 329 327 326 321 318 316 313 311 311 312
359 364 363 362 358 358 356 355 353 349 349 348 346 344 343 342 343 343 342 340 339 337 336 337 338 337 336 334 332 330 327 320 318 316 314 313 312 312
361 360 358 353 351 347 345 345 344 344 342 341 340 340 340 340 339 339 338 336 335 335 336 336 336 334 334 332 332 330 327 321 318 317 316 315 313 312
350 347 344 343 342 341 340 340 338 337 337 337 337 336 336 336 336 335 335 335 335 336 336 335 335 333 333 335 334 331 325 324 321 320 317 316 316 316
341 338 337 337 336 335 334 334 334 333 333 332 332 332 332 332 332 331 331 332 333 333 333 335 334 334 334 334 334 329 328 325 324 322 321 318 312 314

GFSNE_925_thetae_057.txt.gz
Theta_e
348 346 343 347 349 350 345 344 345 343 342 347 346 345 344 344 344 344 343 343 343 343 344 344 344 344 343 343 342 339 335 332 330 327 325 325 325 326
352 354 351 341 343 353 350 348 348 346 343 346 345 349 347 345 346 345 345 345 346 346 346 348 347 347 347 345 344 343 342 341 338 335 331 328 326 325
355 353 354 355 349 351 354 352 349 348 349 348 348 349 347 346 344 348 350 350 349 349 348 349 349 350 349 348 346 345 344 343 342 341 340 338 335 330
354 353 355 357 354 353 351 351 353 354 354 351 349 348 355 356 354 353 352 352 351 350 350 351 351 352 352 352 353 350 348 348 347 346 345 343 342 341
355 354 352 351 357 357 355 357 357 356 359 358 357 357 354 351 354 355 355 354 355 355 356 355 350 358 361 360 360 359 358 352 353 352 348 346 345 343
355 358 356 355 356 354 355 356 355 355 354 354 354 356 357 357 357 355 354 353 353 350 347 353 361 362 358 359 360 358 358 358 356 353 350 350 350 348
351 351 357 357 354 356 357 357 358 359 358 359 360 361 361 359 357 353 353 350 354 353 358 360 359 359 361 359 359 360 359 352 347 346 343 340 339 340
357 356 352 356 357 356 356 357 358 359 361 362 360 359 357 354 351 352 353 357 357 358 359 358 359 359 359 360 361 353 347 344 338 336 335 334 334 335
358 358 357 355 355 357 357 356 356 355 356 356 356 355 355 353 354 355 355 356 357 357 359 358 359 359 360 361 353 349 339 338 336 334 331 328 328 328
353 358 358 357 357 358 357 357 356 355 355 355 356 357 357 357 356 354 355 358 360 360 355 360 360 359 358 352 350 339 336 335 332 331 327 325 323 322
353 353 353 355 355 356 355 355 358 360 361 361 361 358 354 356 355 356 358 359 354 357 361 361 360 358 355 350 344 339 335 332 331 327 324 321 320 320
353 353 354 355 355 357 359 357 356 354 351 351 354 355 357 359 359 360 362 358 359 359 359 359 358 352 347 348 343 336 334 331 329 325 321 319 317 316
352 352 351 350 350 349 349 350 354 353 356 356 358 361 359 356 358 359 362 361 360 360 360 359 357 351 345 343 338 336 331 330 326 323 320 319 316 314
354 354 353 353 352 352 351 352 351 352 353 356 357 357 355 357 358 362 361 360 359 358 356 355 355 352 342 338 337 335 330 327 324 320 319 318 318 314
357 356 356 357 357 356 355 353 355 355 354 354 354 353 357 359 361 361 360 358 356 354 353 351 353 352 340 337 335 332 330 325 323 319 317 313 312 311
361 358 357 357 356 354 354 354 352 351 352 353 354 359 360 361 360 359 357 355 354 351 343 345 350 342 337 336 333 330 326 323 321 318 316 314 312 312
363 357 358 358 357 356 356 360 360 354 355 358 360 361 361 358 358 354 354 352 353 344 341 344 339 338 337 334 331 328 326 322 319 318 317 315 312 312
359 356 356 357 357 356 356 357 360 361 361 359 360 360 358 355 353 353 352 343 341 341 343 338 337 338 336 333 331 328 326 324 319 317 315 314 312 310
358 356 357 357 357 358 356 356 362 363 363 362 359 355 353 352 349 346 343 342 342 340 338 336 336 337 334 331 331 328 327 325 320 318 315 313 312 311
355 356 357 359 359 359 361 361 360 358 356 353 352 349 343 343 343 340 339 338 337 336 335 334 335 335 333 331 331 330 327 326 323 319 316 315 313 309
357 355 354 351 348 348 346 347 349 348 349 344 341 340 340 340 339 338 337 336 334 334 334 334 334 334 334 333 332 332 332 327 323 320 318 316 315 312
352 350 349 347 345 342 343 342 340 340 339 339 338 338 337 336 335 334 334 334 334 334 334 335 335 334 333 333 333 333 333 330 325 322 319 317 314 315
345 346 341 339 340 338 338 339 337 336 335 334 333 333 333 332 332 332 331 331 329 330 330 331 331 332 331 333 333 333 330 329 325 322 322 320 317 312

GFSNE_925_thetae_060.txt.gz
Theta_e
344 344 345 344 346 348 352 344 344 340 338 346 345 346 346 342 343 343 343 343 344 345 346 346 345 345 346 345 345 346 345 343 342 339 335 330 328 331
350 347 347 343 342 344 353 350 348 345 340 345 345 347 349 347 347 346 345 346 347 350 350 350 349 348 349 349 350 349 348 347 345 344 343 341 340 334
351 352 351 353 353 350 351 352 354 353 347 348 347 349 349 349 355 354 353 353 353 353 353 354 353 353 351 352 354 358 354 351 348 347 345 343 343 341
351 352 353 354 355 354 353 352 350 351 353 352 353 354 354 353 351 353 356 353 354 356 356 355 350 351 360 359 359 360 358 357 356 355 352 350 345 342
353 354 353 352 353 356 356 356 354 354 359 359 358 355 353 350 356 358 355 350 347 347 349 355 360 360 358 359 359 360 358 355 350 348 347 346 344 343
352 352 355 355 353 351 352 352 353 354 354 354 354 354 356 357 360 357 358 352 349 350 355 358 356 357 358 359 359 359 351 347 343 340 338 336 335 336
350 352 352 356 357 355 356 355 355 356 356 357 358 359 360 361 360 357 353 352 353 351 355 356 356 358 358 360 359 353 345 340 336 334 331 328 327 326
351 352 353 351 351 355 356 356 355 357 357 358 358 360 360 357 353 353 353 354 354 353 355 356 357 358 358 358 356 342 339 336 334 330 327 324 323 322
350 354 355 354 354 353 353 357 358 357 357 357 357 357 356 354 354 355 356 355 355 355 358 359 357 359 357 357 343 337 335 333 330 327 324 323 321 319
351 352 354 354 354 355 355 354 353 355 356 356 355 355 354 355 357 358 356 356 356 358 359 354 360 359 356 341 338 337 334 330 328 324 323 322 321 320
354 352 351 351 350 354 357 357 356 355 350 353 357 358 360 358 354 357 356 356 357 358 360 360 359 358 355 341 340 337 334 328 325 323 322 321 321 319
356 355 354 354 353 351 353 354 356 355 354 353 353 352 352 355 356 359 358 357 356 356 359 358 358 354 346 348 342 336 333 328 324 322 321 320 319 319
353 353 353 353 353 352 352 354 354 351 352 354 356 355 352 356 359 356 355 357 358 359 359 358 357 355 346 344 339 336 333 328 323 321 320 319 317 317
355 353 353 352 351 351 351 351 350 350 350 351 351 352 353 355 354 357 358 361 360 359 359 358 355 353 348 338 336 335 332 327 323 321 320 318 316 316
357 355 354 353 352 352 351 351 352 353 354 351 352 353 353 353 354 357 360 360 359 356 354 353 352 354 350 339 335 332 329 325 324 321 318 316 314 314
360 359 358 356 355 355 355 355 355 354 351 350 351 352 353 353 358 360 360 358 354 352 347 343 345 353 349 337 335 332 328 327 326 321 317 315 313 311
361 357 356 356 356 356 356 355 354 355 354 351 349 351 353 358 359 359 357 354 354 352 343 344 345 342 338 336 333 330 327 327 325 321 317 316 313 312
358 354 354 354 353 354 354 355 356 356 356 356 354 355 359 360 359 356 353 354 350 344 341 341 339 338 335 333 333 330 327 327 325 321 317 316 313 311
358 355 355 355 355 355 356 356 356 356 356 356 356 358 359 357 352 351 350 344 341 340 338 336 336 336 331 330 332 331 329 327 325 320 317 316 312 311
356 357 356 356 356 356 356 356 355 356 358 355 353 353 351 347 344 345 345 341 338 336 335 335 335 335 333 330 331 331 331 328 326 322 318 316 314 312
352 355 355 356 357 357 356 356 355 353 351 339 337 341 340 340 340 338 337 336 335 334 333 333 333 334 334 333 332 331 332 332 329 324 320 317 315 314
351 352 355 356 356 355 351 345 337 336 334 332 334 344 340 338 338 337 336 334 334 334 333 332 333 334 334 332 332 332 332 331 329 325 320 318 315 313
349 351 349 349 347 344 342 340 339 339 339 339 340 337 335 335 334 333 332 332 331 329 330 330 330 331 331 329 330 332 330 329 328 327 325 322 320 315

GFSNE_925_thetae_063.txt.gz
Theta_e
345 346 346 346 346 347 353 345 342 338 337 343 344 346 347 346 345 345 346 346 349 352 351 351 352 352 351 349 349 349 349 350 347 345 342 340 340 333
346 345 344 343 345 344 350 352 348 344 339 343 345 346 348 348 349 354 352 353 354 354 354 354 354 354 353 351 357 358 359 355 352 349 346 343 340 338
351 352 350 348 350 352 348 351 351 353 348 350 350 350 351 353 352 350 356 354 350 348 345 347 348 349 357 358 358 359 358 356 355 354 352 350 348 347
351 351 350 351 351 354 353 352 353 350 351 350 352 354 354 351 350 353 356 354 356 346 348 354 358 356 358 360 359 359 358 356 352 349 346 344 342 341
351 353 352 351 353 353 354 355 354 354 355 357 356 353 352 351 354 356 357 353 346 350 350 356 356 356 358 358 359 358 352 346 343 339 336 334 333 332
352 351 352 352 353 353 351 352 353 352 353 354 354 354 355 355 358 357 354 351 354 351 351 354 355 357 358 359 358 350 342 341 337 333 328 325 324 323
352 352 350 350 351 354 354 353 354 355 355 355 355 355 355 355 356 356 353 353 355 353 352 354 356 356 358 358 352 341 341 336 332 328 324 323 322 321
351 350 350 349 350 349 353 356 356 356 355 356 356 356 356 355 354 354 353 353 353 353 354 357 358 358 358 355 345 340 336 333 328 325 323 322 321 321
350 350 350 348 349 352 351 351 351 354 357 357 357 357 356 354 354 354 354 354 354 354 355 358 359 359 355 344 337 336 334 330 326 323 322 321 321 320
351 350 350 350 349 352 353 353 354 353 352 352 354 355 355 357 356 357 357 355 355 356 357 357 358 358 350 338 338 336 334 329 325 322 321 320 319 318
352 352 351 351 351 350 353 353 353 354 353 353 354 351 350 351 354 356 355 354 354 357 356 357 358 358 347 339 339 336 334 329 324 321 320 320 319 317
354 353 351 350 351 352 352 352 352 352 351 349 351 351 351 353 356 355 355 356 356 355 358 358 358 357 347 345 341 337 333 330 324 323 321 319 318 316
351 351 350 346 348 351 352 353 353 351 351 350 352 352 351 350 350 351 357 358 355 355 357 358 358 356 350 344 341 337 335 331 324 324 322 319 317 315
352 351 349 348 345 347 350 350 351 352 353 354 354 352 350 350 350 351 354 354 357 360 359 358 358 354 351 343 340 335 334 330 325 325 323 319 316 314
353 353 353 351 349 350 351 351 351 351 352 353 350 350 352 353 352 353 353 357 359 360 358 356 356 354 353 349 340 335 333 329 327 326 323 318 315 313
355 355 355 355 355 354 354 354 352 352 351 350 351 354 351 349 350 352 355 358 359 357 354 354 346 349 353 349 339 335 333 329 328 326 322 318 314 313
356 354 354 355 355 355 354 354 354 354 353 353 351 350 350 349 351 353 358 359 356 354 350 345 346 348 349 341 336 335 332 329 328 325 322 318 315 313
355 353 352 353 353 353 353 352 354 355 354 353 354 354 352 351 353 357 357 355 353 353 352 343 341 340 337 336 335 334 332 329 328 325 324 319 316 313
356 354 354 353 353 352 353 352 352 354 355 355 355 355 354 354 357 355 353 351 349 345 340 340 339 336 330 330 334 334 331 330 328 326 326 320 316 314
354 356 354 354 353 353 353 353 354 354 355 355 354 353 354 355 352 351 350 348 342 340 338 336 336 336 334 330 331 332 331 330 329 327 327 322 318 316
352 354 354 355 355 356 356 355 356 356 356 355 354 354 354 350 348 346 344 345 340 337 335 335 335 334 333 333 331 331 331 331 330 328 326 321 318 316
355 354 353 354 354 355 355 355 355 354 353 354 352 347 343 342 339 337 337 336 336 335 335 334 333 334 333 333 331 330 331 331 330 328 327 324 318 314
351 351 351 351 351 351 351 351 350 347 345 342 336 335 337 338 339 338 337 336 334 333 332 330 330 332 333 332 329 328 330 329 326 326 327 327 325 322

GFSNE_925_thetae_066.txt.gz
Theta_e
345 346 346 346 346 345 350 346 341 347 345 342 343 345 346 348 350 352 350 354 353 349 345 346 346 347 349 350 351 358 358 357 354 351 349 346 343 342
348 346 345 344 344 345 345 352 349 344 348 343 346 348 350 351 350 349 352 355 352 351 348 349 356 356 357 358 358 358 358 356 354 353 352 351 350 349
348 348 348 347 347 350 351 350 350 351 349 350 350 350 352 352 349 348 354 355 352 346 348 352 357 356 357 358 359 358 358 355 352 350 346 344 342 341
349 349 350 351 351 350 353 352 352 352 350 351 352 352 350 348 349 352 354 349 348 351 349 354 355 356 358 358 358 358 356 348 345 340 338 333 330 328
350 350 350 351 350 351 353 352 354 354 353 353 354 352 352 352 351 351 349 350 352 353 349 353 354 357 357 358 358 353 346 342 338 335 327 324 323 322
349 350 351 351 352 352 352 352 351 352 352 352 353 353 354 353 353 353 352 352 353 353 346 350 356 357 357 357 354 345 341 338 335 327 323 322 321 321
349 348 349 350 350 350 350 353 353 353 353 354 353 353 354 354 354 354 354 353 355 354 349 352 356 357 357 352 348 342 338 335 330 324 322 321 320 319
350 350 350 349 349 349 349 350 352 355 356 355 354 354 355 355 355 354 353 352 355 354 353 353 357 357 356 350 341 336 335 332 327 323 321 320 319 318
350 350 350 349 349 349 347 348 351 350 351 352 354 355 355 354 353 355 354 353 353 353 354 356 357 358 353 344 335 335 335 331 327 323 321 320 318 317
351 351 351 350 349 349 349 349 349 351 351 352 353 352 351 352 354 355 355 354 354 353 355 358 356 358 352 340 336 335 336 331 327 323 323 322 318 316
342 344 348 350 350 350 351 350 351 349 349 349 352 352 352 352 353 353 352 351 355 355 357 355 356 357 352 341 337 336 336 333 329 324 324 322 318 315
343 342 344 349 350 349 351 350 352 350 350 350 349 349 349 349 351 351 353 353 355 355 355 356 357 356 348 345 339 340 338 334 331 326 325 321 317 313
345 346 345 341 347 348 347 348 348 347 350 351 351 352 351 351 352 351 350 352 354 356 354 355 357 355 353 344 343 342 339 335 332 327 327 321 316 313
346 347 347 346 342 341 345 343 343 348 352 352 352 351 351 351 351 350 350 350 352 354 355 357 355 356 353 345 344 340 337 334 331 328 327 322 317 315
348 347 347 346 347 348 347 347 347 349 350 349 349 349 349 349 349 350 351 351 353 353 356 359 358 357 352 351 347 342 336 333 330 329 327 322 317 315
350 350 351 351 351 351 352 352 352 351 351 350 349 350 349 349 350 352 349 351 353 357 358 358 355 355 355 353 349 345 338 333 331 329 327 323 318 316
350 349 351 351 352 352 352 353 353 353 353 353 351 350 350 351 351 350 348 351 355 357 355 354 351 349 346 349 347 345 336 333 332 329 327 326 321 318
349 349 350 351 351 351 352 353 351 351 353 354 353 352 351 351 351 351 349 353 356 356 353 350 344 343 342 342 341 336 335 333 331 329 327 326 323 318
351 351 351 352 352 351 352 352 352 351 350 350 351 351 353 351 351 351 351 354 354 354 354 352 345 338 339 342 335 334 336 333 330 328 326 325 325 321
352 353 354 354 354 352 351 352 352 352 351 351 351 351 352 352 352 352 352 352 352 349 345 342 338 337 339 339 336 332 332 332 330 329 327 326 326 323
349 351 354 356 355 353 352 353 352 353 352 352 352 352 352 352 353 353 352 349 344 342 339 337 337 337 336 334 333 332 331 330 331 330 329 326 322 320
353 350 351 354 355 354 352 353 354 353 352 352 353 352 352 351 350 347 347 341 340 340 337 335 334 333 332 332 334 331 331 331 331 330 328 326 323 322
355 354 352 352 353 354 354 351 350 352 352 352 351 350 348 344 344 342 341 340 339 336 335 333 333 332 333 332 332 331 330 329 327 325 325 325 326 325

GFSNE_925_thetae_069.txt.gz
Theta_e
351 347 350 351 350 350 351 350 349 350 348 348 348 349 352 354 352 351 354 354 352 350 347 347 356 356 356 357 358 358 358 357 355 353 352 351 350 348
351 351 348 350 349 350 351 352 352 352 351 350 350 351 352 354 352 351 356 355 354 346 347 349 357 356 356 357 357 358 357 355 353 349 345 342 340 338
350 352 353 352 350 351 352 353 353 352 352 351 353 354 352 356 352 351 355 356 350 352 351 352 355 355 356 357 358 357 356 351 344 339 336 330 326 325
353 353 352 352 355 355 353 356 354 355 354 354 354 354 356 355 355 357 354 351 354 352 349 352 353 356 356 357 358 354 345 342 337 332 325 324 322 322
353 354 353 354 355 354 355 355 355 356 357 356 355 355 355 355 355 354 356 357 353 351 350 352 354 357 356 357 352 344 342 340 332 326 323 322 321 320
354 354 354 354 355 357 356 356 356 356 355 357 354 354 354 355 356 355 353 353 355 354 350 354 357 358 357 354 347 341 340 336 329 324 322 321 319 318
355 355 353 352 350 352 353 354 356 357 355 354 354 353 353 353 353 354 355 355 354 357 353 356 358 361 352 350 344 339 337 334 328 324 321 320 319 317
355 355 354 349 347 347 348 348 351 355 356 355 353 353 355 355 354 355 355 356 354 353 356 356 359 361 352 345 343 337 336 334 329 325 323 324 322 317
355 355 355 353 350 353 351 348 348 347 349 352 354 354 353 354 356 356 356 357 355 352 355 357 360 360 350 350 343 338 337 334 331 327 326 325 320 316
353 353 354 354 355 353 354 354 354 353 351 349 351 354 355 357 358 357 358 357 355 354 357 360 358 360 349 344 344 337 336 335 333 329 327 326 320 315
350 351 352 352 346 343 350 354 354 354 351 351 349 350 348 349 353 354 354 353 351 349 356 361 357 360 350 344 348 341 337 338 334 330 328 326 319 317
347 349 348 346 345 339 341 352 354 352 352 351 354 351 350 349 349 350 353 353 351 352 354 359 356 360 358 350 340 341 339 339 336 332 329 325 319 318
346 345 344 344 338 338 337 348 351 349 350 352 352 353 354 355 355 353 351 353 352 352 354 358 356 360 358 354 348 341 338 336 332 330 330 326 320 318
350 349 348 344 341 339 338 338 342 346 349 348 348 351 352 352 352 354 356 356 354 353 354 358 358 358 358 356 354 348 342 338 333 331 327 326 322 319
349 350 349 348 345 344 343 343 342 346 348 348 348 348 350 351 353 354 354 355 355 356 355 358 357 358 358 357 357 353 345 340 334 331 329 326 322 320
346 348 349 348 347 347 348 347 348 348 349 348 347 347 350 352 352 352 352 354 356 356 356 356 355 357 357 354 354 353 348 344 334 331 329 326 324 321
346 348 350 350 350 351 351 351 351 350 349 350 350 350 351 352 353 353 354 355 355 355 354 358 353 356 353 354 353 351 350 344 338 334 330 330 326 322
347 351 352 352 352 351 352 353 352 352 351 350 350 351 351 352 353 355 355 355 355 355 355 357 352 348 346 347 348 348 346 342 337 332 330 330 332 324
350 352 353 353 352 352 353 353 353 352 353 351 350 351 352 352 354 355 356 356 356 356 356 358 352 346 349 352 346 341 343 339 336 332 331 330 331 330
351 353 354 353 353 354 354 354 353 355 355 354 352 351 352 353 354 355 356 357 356 357 356 354 349 345 348 350 349 343 336 338 334 334 333 329 328 328
346 351 353 355 354 355 356 355 355 353 352 354 355 354 354 354 355 356 357 356 357 355 350 349 347 345 346 341 340 340 335 332 331 332 333 332 332 330
355 353 352 355 354 355 356 356 355 354 352 353 353 352 352 353 354 355 355 354 352 350 349 350 342 340 340 340 342 340 334 332 330 331 331 329 330 330
356 356 355 354 354 356 356 356 355 354 354 353 352 353 352 351 352 352 350 349 348 348 347 343 340 336 338 337 335 334 333 331 331 329 328 327 325 325

GFSNE_925_thetae_072.txt.gz
Theta_e
350 351 350 350 350 350 350 350 349 349 348 351 349 352 352 352 355 353 354 354 355 349 352 347 352 355 356 357 357 357 357 355 353 348 344 340 338 335
348 351 353 348 350 350 349 350 350 349 350 350 350 352 355 354 353 354 353 354 355 349 351 348 355 354 356 356 358 357 355 351 344 340 335 327 324 323
350 351 353 353 349 348 350 350 350 350 349 348 351 353 358 358 357 356 352 351 347 349 350 348 353 354 356 356 357 355 348 342 339 333 325 323 322 322
353 352 352 350 354 353 351 351 349 351 351 350 350 353 355 356 356 357 354 350 352 351 348 349 352 356 356 356 354 347 343 342 335 328 323 322 321 320
354 353 354 352 352 349 353 350 350 352 353 353 352 351 352 354 355 353 354 354 350 349 348 350 356 356 357 355 351 345 343 338 331 324 322 321 320 319
355 355 353 353 354 355 354 355 355 354 351 353 352 351 351 352 353 352 350 349 352 351 350 349 356 360 357 354 349 344 341 336 329 325 323 323 322 320
356 357 355 352 353 355 354 354 355 355 352 351 351 351 351 351 353 349 350 349 350 350 354 349 354 355 359 351 347 343 340 337 331 327 325 326 324 319
356 357 356 354 352 349 346 345 349 355 355 355 352 351 353 354 351 350 350 349 351 349 350 348 350 357 361 354 346 345 340 338 333 331 328 328 323 318
355 355 356 353 354 354 353 348 348 348 348 351 353 352 351 352 353 355 353 353 353 352 349 348 350 356 362 350 350 349 344 339 337 333 329 329 323 319
352 354 355 352 352 355 354 353 353 353 352 350 351 352 352 352 354 355 355 356 354 352 350 353 351 351 362 355 349 349 345 341 340 336 332 329 323 320
350 351 354 354 354 352 353 352 352 352 350 351 350 350 352 351 349 350 349 347 345 344 344 346 351 352 361 358 347 346 345 343 343 340 334 330 324 322
345 349 351 352 353 353 355 353 352 349 348 347 350 351 351 352 348 350 351 349 344 343 343 349 351 351 355 360 356 342 342 344 342 342 336 331 325 322
347 344 343 345 347 347 352 353 352 347 344 346 347 347 346 350 355 355 353 352 346 343 342 349 349 351 353 357 358 354 345 342 338 338 335 332 329 323
350 349 349 348 346 345 345 344 347 347 342 339 339 340 341 343 345 348 353 356 354 354 351 354 353 352 353 353 355 356 353 348 346 342 338 333 330 327
350 352 352 352 351 350 347 345 344 345 344 340 340 340 340 340 343 346 351 355 358 360 358 359 358 356 357 356 357 357 354 351 347 343 340 336 334 330
347 347 350 351 351 351 350 348 346 347 345 344 342 341 342 341 342 345 349 350 352 351 354 359 359 360 359 357 359 359 357 354 348 343 339 338 335 331
348 350 351 351 352 352 351 350 350 349 348 348 348 347 345 343 342 344 347 349 349 349 347 349 359 360 359 359 358 358 357 355 352 347 340 339 338 335
350 351 353 354 354 354 352 351 351 351 351 351 350 349 348 345 344 345 347 348 350 349 349 350 354 357 356 354 354 357 356 352 351 346 342 340 340 339
352 353 355 355 356 356 356 355 353 351 351 351 350 350 348 347 346 346 347 349 352 352 351 351 354 356 359 359 353 350 353 352 349 345 341 340 339 337
351 352 353 356 356 358 357 357 356 356 355 354 353 352 351 350 349 349 349 351 352 353 355 355 357 356 356 357 354 353 346 349 348 344 342 340 336 332
350 351 352 354 357 357 357 357 357 358 358 357 357 356 355 353 352 351 351 351 352 354 356 357 357 356 354 353 353 351 342 339 343 342 341 339 337 336
354 354 354 354 355 356 358 358 359 360 358 357 357 358 357 358 358 356 356 356 356 357 357 357 356 353 351 353 352 350 346 338 335 334 332 333 335 333
353 355 355 357 356 356 357 358 358 359 358 358 357 356 356 356 355 355 356 356 357 358 356 354 351 350 349 349 347 348 343 340 334 330 331 330 330 328

GFSNE_925_thetae_075.txt.gz
Theta_e
350 349 349 349 346 348 347 347 350 352 349 352 348 353 352 351 354 355 354 353 352 354 349 344 348 353 355 356 357 356 355 352 345 339 334 326 324 323
347 348 349 350 348 347 347 348 348 349 351 349 349 352 357 356 355 356 356 353 351 353 350 346 346 352 355 356 356 354 349 343 341 334 326 323 322 321
351 350 354 352 351 347 346 347 348 349 349 347 349 353 359 357 358 359 357 354 352 350 350 347 349 353 355 356 355 348 344 343 338 330 323 322 321 320
352 351 351 351 354 351 352 350 350 352 352 355 351 350 351 354 356 357 355 352 352 352 349 348 350 356 355 356 353 347 345 339 333 326 323 322 322 321
353 352 352 353 352 352 352 349 350 353 352 353 353 351 350 351 353 354 354 353 353 350 349 349 350 356 357 355 354 347 344 339 331 326 325 325 324 322
355 353 353 353 354 354 354 354 352 353 351 351 350 350 350 350 352 353 351 348 349 350 351 352 349 355 359 355 353 349 342 339 334 329 327 328 325 320
355 355 354 353 353 354 354 354 352 355 352 350 349 349 349 351 354 355 351 349 350 348 348 351 351 353 358 355 352 350 345 340 337 333 330 329 325 320
356 357 357 354 352 351 352 352 353 357 359 356 353 352 357 353 351 351 351 349 348 348 350 351 346 346 353 354 353 351 350 343 340 336 333 332 328 322
356 357 356 351 353 355 353 346 341 341 344 349 355 356 354 353 352 355 352 355 354 350 349 348 348 350 352 359 357 351 350 347 342 339 335 333 330 323
353 356 356 355 355 357 356 356 356 354 350 348 348 348 350 352 353 354 356 358 356 354 354 354 349 348 349 360 359 357 352 350 344 340 338 333 331 324
352 351 353 356 357 352 355 357 356 356 351 351 352 351 350 350 349 352 351 347 346 343 341 342 343 344 346 353 360 357 355 351 350 343 340 335 333 327
350 351 350 351 353 356 355 355 357 356 356 348 351 351 351 351 350 350 352 352 348 346 342 342 343 345 348 349 361 356 355 352 348 345 342 339 333 330
350 350 349 348 345 349 352 356 357 357 356 352 350 347 345 349 354 355 355 354 351 348 344 342 343 344 345 347 349 357 353 351 350 345 342 339 334 332
352 350 349 348 346 344 344 345 346 352 353 351 348 343 342 343 342 342 349 353 355 354 350 347 354 351 348 347 348 351 357 350 346 345 344 341 337 333
353 352 351 351 351 350 347 345 345 347 349 351 350 347 342 339 339 339 340 350 354 353 357 356 358 358 357 354 352 350 352 358 354 350 348 344 340 337
352 351 350 351 351 352 352 352 350 347 349 350 350 349 345 341 341 342 343 342 345 351 355 353 352 360 360 357 356 356 353 356 358 351 348 345 342 339
351 353 352 351 351 352 354 354 355 353 350 350 351 350 347 345 344 343 343 343 346 349 349 348 354 354 360 359 358 357 356 357 358 354 347 345 344 342
354 353 354 355 356 355 356 356 356 355 354 353 352 351 350 349 349 349 346 345 346 348 349 349 348 356 358 360 360 360 359 358 356 355 347 348 346 344
348 355 356 355 356 357 356 356 356 354 353 352 353 354 353 352 352 351 350 348 348 349 350 351 352 352 360 362 358 355 355 357 356 354 352 349 346 344
346 351 355 356 357 358 357 357 358 357 355 355 355 354 353 353 353 352 351 350 349 350 351 354 355 355 358 358 356 356 353 352 354 353 351 348 343 341
349 352 351 355 356 357 358 359 359 359 359 360 359 358 357 356 355 354 352 351 351 352 355 354 354 355 356 356 356 356 356 351 350 351 350 347 344 340
343 351 353 353 355 356 358 358 359 360 359 357 357 357 358 357 356 356 355 355 356 354 353 353 355 356 355 356 357 356 355 352 346 347 345 346 343 341
345 349 354 355 356 357 357 358 358 359 359 359 359 358 359 359 360 359 358 357 357 359 359 358 358 357 358 357 356 354 353 349 341 338 339 341 338 336

GFSNE_925_thetae_078.txt.gz
Theta_e
352 344 345 348 349 345 346 347 349 359 357 349 347 349 352 353 353 354 355 355 351 352 352 347 347 350 354 355 356 354 349 342 339 334 328 323 322 321
346 350 341 342 349 351 347 347 347 348 355 349 351 353 353 353 355 357 352 351 354 352 349 349 347 352 354 355 354 349 344 341 335 329 324 322 322 322
351 352 349 351 345 352 353 351 347 349 355 352 352 355 352 351 354 356 355 354 353 352 351 350 347 350 355 355 354 350 347 339 331 326 324 324 325 323
348 348 351 353 350 349 349 350 349 349 349 353 352 348 348 351 355 355 355 353 354 354 353 350 347 349 355 355 353 350 349 342 332 327 326 327 326 321
354 353 350 352 352 351 351 354 352 354 351 351 350 353 353 351 351 351 354 351 353 352 349 349 350 350 353 357 354 351 349 344 337 332 329 329 325 320
353 353 354 353 353 352 352 352 352 354 352 352 351 349 349 350 352 353 354 351 347 351 348 351 352 351 351 358 356 352 350 347 342 335 332 331 326 321
353 355 355 356 354 354 354 355 355 353 355 354 353 353 352 356 355 354 353 355 352 348 346 353 352 351 349 353 357 351 350 349 346 342 335 332 328 323
352 352 356 354 356 352 352 353 354 354 354 356 359 358 354 356 354 353 352 352 351 354 353 349 349 348 349 351 355 353 350 350 349 345 340 334 331 325
355 353 354 354 356 354 352 351 348 344 348 349 349 352 353 344 347 351 355 354 357 349 350 352 350 352 350 353 353 354 352 352 352 349 345 341 334 326
352 356 355 354 352 355 358 358 355 352 349 345 342 341 340 339 341 347 349 354 356 356 355 358 354 353 351 351 353 357 357 355 352 351 349 344 337 331
352 351 351 356 356 353 350 353 359 359 359 356 355 352 350 348 348 351 353 353 352 350 347 345 344 344 344 347 349 358 359 356 353 351 349 347 341 334
350 349 351 352 349 354 359 356 355 353 357 359 356 352 351 352 352 353 352 354 354 353 350 347 346 345 346 345 347 354 358 357 354 350 349 348 343 336
354 353 352 351 349 349 348 351 357 356 355 355 355 355 354 352 350 349 349 352 353 354 351 348 346 349 352 352 349 349 355 356 355 353 350 347 343 337
356 355 354 354 351 351 350 347 345 349 353 355 355 355 353 351 349 346 344 348 350 351 350 352 350 350 351 354 354 352 350 353 353 352 351 346 343 340
356 356 355 353 353 352 351 349 347 345 348 350 351 352 352 351 349 344 340 339 343 350 353 353 353 354 357 358 357 353 353 354 355 354 349 347 346 344
352 355 355 355 354 352 352 352 352 348 346 348 349 349 350 351 351 349 345 341 340 348 347 349 353 352 356 359 358 358 356 356 355 355 354 351 347 344
350 350 353 353 353 352 352 352 353 353 350 349 350 351 352 353 352 350 347 343 344 346 345 344 347 354 355 358 357 359 359 358 357 356 356 353 349 346
341 350 352 355 356 357 355 353 353 355 356 354 352 353 353 353 353 351 349 346 347 347 345 344 346 353 354 359 352 357 358 356 356 355 355 354 349 346
333 340 350 354 356 355 356 358 357 357 356 357 357 357 355 354 353 351 350 350 352 351 349 346 349 352 355 356 354 355 356 356 355 355 355 355 349 348
338 339 344 349 351 355 356 355 358 359 359 359 358 356 355 356 357 356 354 354 353 351 350 348 351 350 351 351 351 353 356 355 354 353 352 353 350 348
337 344 345 348 350 352 355 357 356 355 360 359 358 357 357 357 355 354 353 354 354 353 353 352 351 349 348 353 356 356 355 355 354 353 351 351 344 338
336 338 340 341 351 353 354 356 357 357 356 356 360 359 358 357 357 356 355 355 354 354 354 353 354 352 353 355 355 355 354 354 355 353 351 349 348 343
342 344 347 347 349 352 355 356 356 357 357 356 357 360 360 358 356 357 356 356 355 355 355 354 354 353 353 353 353 355 356 356 354 350 346 344 343 339

GFSNE_925_thetae_081.txt.gz
Theta_e
343 351 343 341 345 350 351 348 348 349 347 350 348 349 351 351 352 352 353 352 347 354 354 351 347 351 353 353 353 348 345 344 336 329 323 322 322 323
347 347 348 345 340 344 352 352 350 349 348 350 355 354 354 352 349 352 353 351 351 353 351 350 347 348 354 353 353 348 347 341 332 326 324 325 325 322
347 352 350 350 349 343 344 349 350 351 352 352 351 351 349 345 348 351 353 351 352 353 354 352 349 347 353 355 353 350 348 343 335 329 328 328 326 321
348 348 349 351 353 351 351 347 352 352 355 351 349 349 351 353 353 351 355 351 352 352 354 352 351 348 351 355 355 352 349 345 341 334 333 331 327 321
350 350 346 349 347 349 350 348 351 350 352 354 352 354 353 351 348 348 349 351 349 351 349 349 350 349 350 353 356 354 350 347 344 340 336 333 329 322
351 354 353 351 351 351 349 348 349 350 350 352 351 350 348 350 355 358 356 353 353 352 349 345 351 351 351 351 354 356 351 349 345 343 342 338 333 325
351 352 352 355 354 354 352 352 351 352 353 354 358 358 358 357 356 354 351 350 350 348 342 346 351 347 348 348 349 354 354 351 347 345 343 341 337 330
350 349 352 352 355 357 354 353 353 352 355 353 353 354 355 357 354 346 344 345 352 343 347 345 351 351 350 350 352 351 355 353 349 347 345 343 341 335
353 353 353 351 349 352 351 354 353 351 350 349 351 351 351 347 342 339 338 342 349 346 354 355 348 352 347 348 351 353 353 354 352 350 348 345 344 338
356 356 355 353 352 351 353 355 355 353 352 352 348 342 341 347 345 343 343 345 349 350 351 355 346 346 341 343 347 351 352 354 353 351 349 347 345 341
350 351 353 353 354 355 353 354 356 355 353 355 356 356 356 351 351 352 348 351 352 350 350 350 349 348 343 345 345 347 351 355 354 352 349 347 346 343
353 352 350 349 351 353 353 355 357 356 353 353 357 358 358 356 352 352 352 350 350 351 348 351 349 347 346 345 347 347 348 352 351 355 352 348 347 343
354 354 353 353 351 349 348 350 351 348 354 356 355 353 352 353 353 352 351 350 351 352 346 350 350 350 349 348 348 347 348 348 349 354 354 352 349 345
355 354 355 354 354 353 352 351 350 349 350 351 353 354 355 354 354 353 352 351 349 348 344 347 350 351 351 349 350 349 351 351 349 350 354 353 350 343
354 354 353 354 355 355 353 352 351 350 349 346 347 349 350 351 352 352 352 350 348 346 344 343 350 353 354 352 351 352 354 353 352 352 351 351 351 348
333 345 350 351 353 355 355 355 354 351 351 349 347 347 347 348 349 350 351 350 349 347 347 344 342 346 355 354 354 355 355 353 350 351 353 352 352 349
324 326 330 346 350 351 352 353 353 352 352 351 348 346 346 347 348 348 350 350 349 347 344 343 341 341 348 353 356 356 356 356 353 351 354 353 353 353
327 330 335 343 351 353 353 353 353 353 352 350 349 349 348 349 349 351 351 351 350 348 345 344 342 343 351 355 353 355 354 354 352 352 352 353 354 354
324 326 329 335 343 353 354 355 356 356 355 352 352 351 351 351 351 351 351 351 350 350 348 347 346 346 345 349 349 350 353 353 352 353 351 352 353 351
323 327 330 334 338 342 347 351 353 354 354 355 355 353 354 353 353 353 352 351 350 350 348 348 349 350 350 347 346 347 347 350 353 354 353 353 354 353
326 330 332 334 338 340 342 346 350 354 354 354 354 354 354 354 355 354 354 353 352 352 351 350 352 351 350 348 350 351 352 353 354 353 353 352 350 347
324 330 333 334 336 339 341 348 351 351 352 354 355 354 353 352 353 353 354 352 353 353 353 353 352 352 352 352 350 347 345 348 353 353 352 351 349 339
324 325 329 340 342 345 346 347 351 352 353 353 353 354 353 353 353 352 353 352 352 353 353 353 353 352 353 353 352 351 351 351 351 350 348 350 351 349

GFSNE_925_thetae_084.txt.gz
Theta_e
346 344 349 342 341 346 352 351 347 344 343 351 351 350 352 353 352 349 351 353 352 352 353 353 350 347 352 353 351 348 347 340 333 326 324 324 326 322
344 346 347 347 347 344 344 349 352 348 344 352 356 355 352 349 344 348 351 352 352 352 353 353 350 348 349 353 353 349 348 343 334 330 328 328 326 321
344 347 347 350 349 350 348 346 348 350 349 349 348 347 348 349 350 351 350 351 354 352 352 353 353 350 347 352 354 352 349 347 341 333 333 332 329 322
347 345 347 349 350 352 349 348 349 352 354 353 352 352 353 351 349 349 350 352 351 351 349 347 349 351 349 349 352 354 351 349 346 340 335 334 331 324
352 349 349 348 347 346 345 348 347 348 350 351 352 351 348 348 350 354 354 353 353 351 350 348 346 350 350 350 350 353 354 350 348 344 339 336 334 327
351 350 350 351 350 349 349 350 349 349 349 351 349 350 352 352 355 354 352 348 345 345 341 340 350 345 345 347 349 350 353 353 349 347 345 340 336 330
350 350 350 351 352 351 353 353 352 351 350 351 355 354 353 354 354 355 354 349 337 335 337 341 342 346 349 352 351 349 349 351 352 349 347 343 340 334
351 350 349 351 351 351 354 355 356 353 352 352 352 353 352 352 352 352 350 344 344 339 344 344 343 338 335 343 343 345 351 351 353 351 348 346 342 338
353 352 351 350 349 349 350 354 354 353 354 354 352 351 349 344 341 341 340 342 344 344 346 349 345 343 342 340 336 341 345 352 352 353 350 347 344 341
352 353 354 353 352 352 351 350 349 352 354 354 353 351 351 351 350 351 349 348 349 348 348 351 347 344 344 344 337 341 345 348 351 353 351 349 347 344
352 352 351 351 354 355 355 353 353 352 351 353 353 352 352 354 355 355 353 349 350 349 349 349 345 346 346 344 339 340 344 345 349 352 351 350 347 344
352 352 353 352 351 349 350 352 354 353 353 352 351 351 353 351 352 357 357 352 349 349 348 348 346 348 347 346 345 344 343 343 345 350 352 352 349 345
352 351 351 352 352 352 353 351 350 349 350 350 350 351 352 353 354 354 352 354 351 350 350 348 348 348 347 348 348 348 348 347 348 348 348 348 348 346
351 352 353 354 353 354 353 353 353 352 350 349 348 349 350 351 350 350 349 351 351 351 350 351 349 349 348 347 348 349 349 349 349 350 349 348 347 349
342 341 337 343 350 352 353 354 354 354 353 349 346 346 348 349 349 350 351 351 350 351 350 350 350 348 348 348 347 348 350 350 351 351 351 350 350 350
323 322 323 324 328 331 338 347 351 353 354 350 350 350 349 347 347 348 348 349 349 349 349 348 349 348 349 348 349 350 350 351 351 352 351 350 350 351
321 322 322 323 327 329 334 342 349 349 351 352 350 349 348 347 346 346 346 347 348 348 348 348 348 348 346 345 349 350 350 351 348 352 353 353 351 350
319 320 322 324 329 332 335 341 349 351 351 351 350 349 348 347 346 346 346 346 347 348 348 349 348 347 344 347 347 352 352 352 350 350 351 353 353 350
319 320 320 322 324 327 330 337 345 348 351 352 351 350 350 348 347 347 347 348 349 349 349 349 347 344 339 343 345 347 352 351 351 352 352 353 352 351
318 319 320 321 323 326 329 333 336 341 346 351 352 352 351 351 350 349 349 349 350 350 349 349 348 346 344 344 345 347 347 348 352 352 352 352 353 353
314 318 321 323 325 327 330 333 335 338 341 345 348 351 352 352 352 351 351 350 349 350 350 349 350 351 349 348 347 348 349 349 349 350 351 352 352 350
310 313 316 323 329 331 333 335 338 340 343 344 347 350 350 351 351 351 351 349 345 348 350 350 350 350 349 348 347 348 348 348 349 347 349 352 351 342
308 311 315 316 318 321 325 329 336 341 343 344 347 347 347 348 349 350 350 350 349 350 350 348 349 350 350 350 350 349 350 350 349 349 346 348 350 351

GFSNE_925_thetae_087.txt.gz
Theta_e
346 345 345 346 344 342 347 351 345 342 341 352 355 350 352 352 348 345 349 351 352 353 353 353 352 350 347 350 353 349 347 342 334 329 328 327 326 320
346 344 345 346 348 348 344 348 350 348 342 351 353 351 348 347 350 350 349 349 348 351 350 351 351 352 349 347 351 353 349 346 341 334 332 331 328 322
347 346 346 348 349 350 350 347 349 351 349 349 349 350 350 351 350 348 349 349 349 351 348 347 347 348 350 348 348 351 353 349 345 340 335 335 332 325
347 348 342 345 348 350 351 348 347 347 351 350 351 350 350 348 347 350 353 352 352 350 349 348 347 343 349 349 348 350 351 352 348 344 340 337 335 330
346 347 351 347 347 347 347 345 346 347 347 349 349 348 347 346 348 351 352 352 350 339 332 336 343 346 343 346 348 348 349 351 352 348 344 340 337 334
349 348 349 349 349 349 349 349 350 350 349 349 350 349 351 349 352 354 353 352 349 336 333 337 344 339 340 347 350 349 348 349 350 351 347 343 339 337
350 349 349 349 349 351 353 351 352 353 352 350 350 351 351 350 350 350 352 350 339 338 338 340 343 342 338 338 339 344 343 346 350 350 351 347 343 340
351 351 352 350 349 348 351 351 351 353 354 354 352 351 351 350 349 346 346 345 342 343 343 345 344 341 337 338 341 339 336 341 347 351 351 350 346 343
352 351 351 352 352 350 349 348 349 349 352 353 353 353 353 353 352 350 349 347 345 347 347 348 346 343 338 340 344 338 335 342 346 350 351 351 348 345
353 353 353 351 351 352 352 352 352 351 350 350 350 351 352 352 352 351 351 351 351 351 350 349 346 346 340 337 341 337 335 340 343 346 349 352 351 347
352 352 352 351 351 351 350 349 350 353 353 352 352 350 351 351 352 354 353 352 349 351 350 348 350 347 342 338 339 342 343 344 342 343 347 350 352 349
350 350 351 351 351 350 351 351 351 350 349 348 348 348 347 348 348 350 353 350 349 349 351 349 347 347 345 345 344 344 345 344 347 347 345 346 351 349
348 348 349 350 351 352 352 351 351 351 351 351 351 350 350 349 349 348 349 350 351 350 351 349 349 348 345 347 348 347 347 344 343 345 347 348 347 348
333 335 339 341 343 346 351 352 352 352 352 351 347 347 348 348 349 349 349 350 350 350 349 351 350 350 348 346 346 347 348 348 346 341 345 348 349 348
320 322 322 323 323 323 326 333 338 342 347 349 350 348 349 350 351 350 350 349 349 349 349 350 350 350 349 347 347 347 347 348 348 345 344 349 350 349
318 320 321 322 323 322 322 322 324 326 331 339 344 347 348 348 349 349 348 348 347 348 348 348 348 348 349 348 347 347 347 346 347 345 345 346 349 350
315 318 320 320 321 322 323 325 328 331 339 341 345 347 347 347 348 348 348 346 345 346 347 347 347 347 347 347 346 346 346 347 346 345 346 347 347 350
314 316 317 318 319 321 322 323 324 327 335 342 346 348 348 348 348 348 347 346 344 345 345 346 346 346 347 346 346 345 345 346 345 345 347 349 349 347
311 313 314 316 317 319 320 322 324 326 328 333 342 345 347 348 348 347 346 346 345 345 345 346 347 347 343 344 346 346 346 346 346 348 349 350 350 348
306 308 310 314 317 319 321 323 325 327 330 333 336 341 345 347 348 348 348 347 347 347 347 348 348 346 344 344 346 346 346 346 348 350 350 350 350 350
304 305 307 309 311 315 321 324 328 330 332 334 336 338 341 345 346 347 348 348 349 348 347 349 348 345 345 346 344 345 347 347 347 347 350 351 350 350
304 304 305 306 308 313 314 318 320 320 326 333 336 340 343 345 347 346 348 349 348 349 348 348 347 347 348 346 345 346 346 348 348 348 348 348 349 343
301 303 304 305 305 307 310 309 309 312 316 324 330 332 332 342 342 343 344 344 346 348 346 345 346 348 348 347 346 346 346 347 348 347 347 347 347 347

GFSNE_925_thetae_090.txt.gz
Theta_e
343 344 343 345 347 344 345 349 345 350 349 351 353 353 351 348 348 349 348 347 348 348 349 349 350 350 350 347 349 351 350 347 341 333 331 330 327 321
344 344 343 343 346 349 347 346 348 347 350 350 351 346 348 351 350 348 348 349 348 350 349 347 346 347 347 349 348 349 351 350 346 341 336 334 331 325
345 344 345 345 346 348 350 348 347 350 350 349 350 350 349 349 348 347 350 352 350 348 348 349 349 346 343 349 349 348 349 351 350 346 342 337 335 330
346 346 347 344 345 347 349 350 348 346 347 348 347 345 344 343 344 345 348 351 351 351 343 334 334 335 340 339 344 347 348 348 351 350 346 342 338 336
348 348 346 348 346 345 345 346 346 346 347 348 348 347 346 344 346 349 350 349 352 350 340 333 333 339 338 338 343 348 347 346 348 349 350 346 341 338
348 348 348 347 348 348 348 347 348 348 349 349 349 349 349 349 349 349 348 345 341 336 335 336 339 342 342 339 339 338 343 345 347 349 350 349 345 342
349 349 349 349 348 347 348 350 351 351 351 353 352 351 351 351 351 351 349 349 349 345 341 344 345 344 341 340 339 340 338 338 340 344 350 350 348 344
350 351 351 351 351 350 349 349 349 351 351 351 351 352 352 350 351 352 350 348 348 349 349 349 347 343 340 342 340 343 343 339 337 343 348 350 350 347
352 353 352 351 351 351 351 350 350 350 349 349 349 350 350 349 350 352 351 350 348 351 349 350 348 344 343 343 337 335 341 336 338 343 347 349 350 350
352 351 352 351 351 351 350 350 350 350 350 351 351 352 352 352 351 351 352 351 350 350 350 349 349 348 345 342 342 337 343 342 343 343 343 346 348 351
349 350 351 352 351 351 350 349 349 349 349 349 349 348 348 348 348 350 350 349 350 349 349 350 350 349 349 346 345 344 341 343 344 344 346 345 345 349
345 346 348 349 350 350 350 350 349 350 350 350 351 351 351 351 351 350 350 350 350 350 349 349 351 348 349 347 346 345 346 346 346 345 343 342 346 345
334 339 342 340 338 342 345 348 350 351 351 351 351 351 351 351 351 351 350 349 349 350 350 349 350 349 347 348 348 347 347 347 346 347 347 346 343 346
317 319 321 323 324 326 326 328 327 329 334 340 344 347 349 350 350 350 350 351 350 350 351 349 350 350 350 349 349 348 347 347 347 347 347 348 346 343
314 316 318 320 321 322 324 324 323 323 324 328 332 332 335 339 343 346 347 348 348 349 350 350 349 349 350 349 350 350 349 349 347 347 347 347 346 345
309 311 313 316 318 320 321 321 322 323 326 332 334 334 336 342 345 346 346 347 348 348 348 349 348 347 348 349 349 349 349 349 347 347 347 347 346 345
307 308 310 312 314 316 318 319 320 321 327 330 335 338 341 342 344 345 347 347 347 347 347 347 347 347 346 347 348 348 348 348 348 348 347 346 345 343
305 307 310 312 314 316 317 319 320 321 322 324 328 334 339 341 342 344 344 345 346 347 347 346 347 346 345 346 346 346 347 347 347 346 347 347 347 343
303 305 306 307 309 312 315 317 318 321 324 326 328 331 335 339 340 340 343 343 345 345 345 346 347 346 348 349 348 348 347 348 348 347 346 347 348 348
302 303 304 305 306 308 310 312 317 318 320 326 329 331 332 334 338 341 344 345 345 345 345 346 347 347 347 348 349 349 346 344 347 348 349 348 348 348
300 301 302 303 304 305 306 307 309 313 316 315 318 319 326 333 336 338 340 341 342 345 346 347 345 346 348 347 345 346 345 345 346 346 347 348 350 349
296 297 299 300 301 302 303 305 306 308 308 308 310 312 316 327 329 331 333 339 342 344 346 345 343 347 347 346 346 347 347 346 346 347 347 346 347 349
294 294 294 295 295 297 298 301 304 306 307 307 309 311 317 321 322 324 329 335 339 341 341 341 342 344 345 346 345 346 347 346 345 344 345 346 345 344

GFSNE_925_thetae_093.txt.gz
Theta_e
350 346 346 348 351 350 351 353 352 353 352 355 356 355 353 353 352 349 347 347 349 349 348 347 347 347 347 349 348 348 350 349 344 339 335 335 334 328
349 344 346 347 347 352 353 351 352 352 352 352 353 353 351 352 350 347 352 350 350 349 347 345 346 345 341 344 349 349 348 350 349 344 340 337 336 333
347 348 349 346 349 351 353 352 352 352 351 351 352 352 347 352 347 345 348 353 351 352 351 346 336 334 340 337 340 345 348 348 349 349 345 341 338 337
351 350 349 349 351 351 351 355 353 354 350 350 350 349 351 352 349 349 350 348 351 349 350 343 334 334 340 341 339 341 347 346 346 348 349 345 341 339
348 351 351 352 352 349 350 349 348 351 351 351 351 351 352 352 353 352 353 352 348 345 344 340 337 339 342 342 341 339 339 343 348 348 349 349 345 342
346 345 346 351 352 352 352 353 351 351 351 353 352 352 353 353 355 353 353 352 353 352 348 342 345 342 339 337 338 340 340 339 342 343 347 349 349 345
350 349 351 348 349 350 351 351 350 349 351 351 351 351 351 351 351 352 354 355 353 352 350 348 345 346 344 343 345 343 341 343 341 340 341 344 349 348
353 350 349 348 350 350 350 350 349 351 351 349 350 351 354 353 352 353 352 353 352 348 352 347 344 346 346 344 343 338 336 338 342 340 340 344 348 349
350 351 349 351 352 350 349 350 350 350 350 350 352 354 353 355 353 355 353 354 353 350 349 348 346 346 347 345 346 343 337 341 337 341 343 344 348 349
351 352 353 350 350 351 350 353 352 350 349 351 350 352 353 354 355 355 355 354 352 351 351 352 348 348 349 349 349 345 341 342 343 344 344 345 344 346
346 348 348 350 352 350 350 353 354 354 352 351 350 350 349 350 350 350 352 352 351 350 351 353 351 350 352 351 351 347 341 340 343 346 346 344 343 345
341 345 345 338 342 344 344 347 352 353 353 354 354 353 353 353 352 351 351 352 352 352 351 352 351 351 352 349 351 351 351 350 349 346 346 346 346 344
323 326 327 327 331 329 331 332 336 337 338 337 344 349 351 352 352 353 353 352 352 353 352 353 353 353 352 353 352 352 352 352 352 351 350 349 347 347
314 316 316 319 320 322 322 322 323 323 329 332 335 337 338 340 340 341 346 351 352 352 351 351 353 353 353 353 353 351 352 352 353 352 351 351 349 348
308 308 310 313 316 320 321 320 322 328 330 332 333 333 333 334 338 339 342 346 350 351 352 353 354 353 354 354 354 354 353 353 352 352 352 351 350 349
306 307 309 312 315 315 318 321 324 326 327 329 332 332 333 334 336 338 339 340 342 345 349 352 353 353 354 353 353 353 353 353 353 353 353 353 351 350
304 310 311 313 314 315 317 318 320 321 322 324 325 327 329 330 333 335 338 340 342 344 344 343 348 352 352 352 352 351 352 353 353 352 354 353 351 350
307 308 309 310 310 311 312 314 316 318 320 323 324 326 327 329 331 332 335 337 340 343 344 345 347 348 348 349 349 350 351 352 352 353 354 353 351 350
305 305 306 307 308 309 310 311 312 314 318 317 319 322 326 328 329 330 331 333 335 338 340 342 344 346 348 349 348 349 350 350 352 353 352 352 352 352
303 303 304 305 305 305 306 308 308 308 310 311 315 315 317 319 322 326 331 333 336 338 340 341 343 345 348 348 347 348 349 349 351 350 350 349 351 352
299 300 300 300 301 302 302 303 303 305 307 308 310 310 311 313 315 318 322 326 328 331 334 339 342 344 343 346 347 347 348 348 349 348 349 350 351 352
297 297 297 297 297 298 298 299 301 302 303 305 306 308 309 310 314 317 320 321 325 327 331 335 338 341 341 344 344 345 347 348 348 348 347 345 349 352
296 296 295 295 295 295 295 296 297 298 299 299 301 303 306 307 307 308 310 315 320 323 324 327 331 338 340 341 342 344 344 347 347 348 347 345 346 345

GFSNE_925_thetae_096.txt.gz
Theta_e
351 352 350 348 349 350 352 353 352 352 351 356 352 356 354 353 353 351 352 352 350 349 346 342 338 338 342 343 347 348 348 349 348 346 341 338 338 334
349 350 350 346 348 348 349 349 351 351 351 351 351 353 354 351 350 350 350 348 350 350 349 352 349 337 339 338 339 343 347 348 349 348 347 342 340 339
352 351 351 350 347 346 348 349 348 348 349 348 351 351 355 353 353 352 349 348 345 349 346 347 344 336 338 341 340 340 342 346 347 348 348 346 342 340
349 350 351 347 349 348 347 348 348 349 348 347 347 348 351 352 352 354 351 347 346 345 345 345 339 337 338 342 342 340 340 339 345 347 346 348 346 342
350 349 350 349 350 346 346 346 344 345 347 347 347 346 348 351 352 351 349 350 349 347 346 344 341 341 341 339 338 338 341 341 339 344 347 348 348 346
350 350 349 349 351 352 352 351 351 351 348 348 346 345 345 347 349 348 345 346 348 348 348 345 344 344 344 343 342 342 343 339 342 339 342 343 346 349
351 351 351 350 350 349 350 350 352 351 347 344 345 344 345 347 349 347 347 347 346 348 347 348 344 341 341 342 342 344 342 338 338 340 341 340 341 344
353 354 353 352 350 348 349 350 350 352 352 351 348 347 349 351 351 350 350 348 349 346 347 346 344 343 342 342 344 344 342 343 337 338 341 339 341 344
354 353 353 348 350 351 351 350 348 349 350 350 352 352 352 352 353 355 352 352 352 349 348 347 348 347 344 343 347 347 348 342 340 340 342 343 343 344
353 353 354 353 353 351 352 351 351 352 352 352 352 353 354 353 353 354 353 354 354 351 348 349 347 348 348 347 349 350 349 345 341 342 343 344 343 344
349 349 349 348 347 348 349 353 353 353 352 351 352 352 352 351 350 350 351 351 350 349 348 347 347 347 347 347 347 349 351 350 344 341 343 345 346 346
345 341 339 336 339 341 342 343 348 350 348 347 348 349 352 354 354 353 353 353 352 352 350 352 352 352 352 349 348 348 349 351 352 352 351 350 348 346
331 331 329 322 322 322 325 329 335 330 331 335 340 344 346 349 350 351 352 353 354 354 352 353 353 354 354 353 352 350 348 349 350 351 352 353 352 351
315 317 316 318 320 320 322 324 322 323 330 336 339 339 340 340 340 340 342 343 343 344 347 353 355 355 355 354 354 352 352 351 351 352 352 353 353 352
312 307 307 308 310 314 322 318 320 330 334 335 336 337 337 338 337 337 338 341 343 346 347 351 354 354 355 356 356 355 354 353 353 352 353 354 354 354
307 311 312 314 316 317 318 320 321 323 324 324 325 327 328 329 330 331 333 335 337 339 341 343 345 348 352 353 353 354 354 355 353 354 353 354 355 355
306 312 313 314 314 315 316 316 318 319 320 321 323 324 324 325 326 327 328 330 332 335 337 337 340 341 344 350 351 350 352 352 353 353 354 354 355 355
310 310 310 311 312 312 313 314 314 315 317 319 319 319 320 322 325 327 328 328 330 331 332 334 337 340 341 341 341 346 347 348 349 351 352 353 354 355
309 309 309 309 309 309 309 310 312 312 312 312 313 315 316 316 316 319 320 322 326 329 330 331 334 338 346 347 340 341 341 342 347 351 352 352 352 352
306 306 306 306 306 306 306 306 306 307 308 309 310 311 313 314 314 315 316 317 319 322 324 325 326 329 333 338 341 343 343 345 344 345 347 349 350 351
304 304 304 303 303 303 303 303 304 304 304 305 307 308 309 310 312 313 314 316 318 320 320 323 325 327 330 335 339 340 340 344 344 344 346 348 350 350
302 302 302 301 301 301 301 301 301 301 302 302 303 303 304 305 307 309 310 311 311 312 315 317 320 323 324 327 333 338 341 341 342 343 345 347 349 349
301 300 300 300 300 300 299 299 299 299 299 299 300 300 300 301 302 303 304 305 307 310 313 314 315 317 320 322 325 330 335 339 340 341 343 346 347 347

GFSNE_925_thetae_099.txt.gz
Theta_e
353 353 351 348 346 349 350 349 349 354 358 342 353 341 348 352 352 353 351 351 346 350 350 349 347 350 341 338 338 342 345 347 348 348 346 341 339 336
350 349 352 348 347 346 347 348 348 348 350 350 351 354 357 354 352 354 354 350 349 348 350 345 344 342 339 338 339 338 340 344 346 347 348 346 342 340
352 354 351 352 349 347 348 348 347 347 348 347 349 350 353 353 355 355 355 352 348 346 345 345 344 339 336 336 341 341 339 340 341 345 347 347 347 343
351 350 351 349 350 349 347 346 347 348 349 350 347 346 346 349 352 353 353 350 348 349 348 346 344 341 337 338 337 338 338 340 341 340 345 346 346 347
351 351 350 350 349 348 349 348 347 346 348 348 347 345 344 344 346 351 350 349 351 346 346 346 343 344 344 343 342 341 338 340 338 341 339 344 346 347
351 351 351 350 351 350 350 351 349 348 348 348 346 346 345 343 344 347 347 345 345 347 347 346 347 346 344 342 342 342 343 344 342 337 339 340 342 343
353 353 352 351 350 351 351 351 352 352 351 350 346 344 344 351 350 348 350 348 347 346 347 347 345 344 343 343 341 344 343 344 343 340 339 339 341 341
353 353 353 353 352 350 346 345 348 352 353 353 350 350 352 352 351 352 354 350 350 348 348 349 347 347 347 346 343 345 346 347 346 344 337 335 339 339
354 353 354 350 350 353 353 351 350 348 348 350 353 354 354 354 354 355 354 354 354 352 351 354 350 350 347 347 347 347 347 348 346 341 340 340 341 343
353 354 354 354 350 350 350 350 352 352 352 352 352 355 354 353 355 355 354 354 353 353 353 356 351 349 347 347 347 347 348 348 349 348 341 342 343 344
348 347 348 343 343 344 345 351 352 352 352 350 351 351 351 352 351 351 351 350 350 351 351 352 353 353 353 353 351 351 348 348 348 350 351 350 350 349
348 342 336 332 333 335 337 340 347 349 349 346 342 345 347 349 351 351 352 352 353 354 351 354 353 353 354 352 352 352 352 353 350 349 350 350 351 351
328 328 328 328 323 323 323 324 334 330 327 332 337 341 343 343 344 347 348 349 352 352 349 345 347 349 350 353 353 353 353 352 353 353 351 350 351 352
319 320 321 319 318 313 315 322 324 321 326 335 339 340 341 342 342 342 340 339 340 340 339 343 350 351 352 353 355 354 355 355 356 355 355 355 354 352
316 311 308 311 313 315 318 317 321 325 328 329 329 329 328 330 329 331 332 333 336 341 344 347 349 348 349 350 351 352 352 353 354 355 355 356 356 356
309 311 314 315 317 317 320 321 321 321 321 321 322 323 324 325 325 326 327 328 330 330 331 332 337 339 343 345 346 349 351 352 351 352 352 353 354 354
308 315 315 316 316 317 317 317 318 318 318 320 321 321 320 321 322 323 325 327 329 330 331 331 331 332 336 338 342 343 344 346 347 348 351 350 352 352
312 312 313 313 313 313 313 314 315 315 315 314 315 316 316 317 318 317 318 319 321 322 324 325 327 331 334 336 338 344 342 341 343 342 343 348 352 352
311 312 312 312 312 311 310 310 309 310 309 310 311 312 313 315 315 316 316 317 318 319 319 320 321 325 331 332 328 328 338 341 341 344 346 348 347 348
309 310 309 309 308 308 308 308 308 308 308 307 308 308 309 310 311 312 313 314 315 316 317 318 322 323 325 325 328 328 328 331 333 337 343 345 347 346
307 307 307 307 306 306 306 306 305 305 304 305 305 305 305 306 306 307 308 308 309 311 313 315 315 315 315 317 322 326 326 327 328 330 340 341 344 346
306 306 305 305 305 305 304 304 304 304 304 303 303 303 303 304 304 304 304 305 305 305 306 306 306 307 309 313 321 321 321 322 323 322 323 326 337 344
304 304 304 304 303 303 302 302 302 301 301 301 301 301 300 300 301 301 301 302 302 302 303 304 305 305 306 307 310 315 319 322 325 326 328 329 331 336

GFSNE_925_thetae_105.txt.gz
Theta_e
349 350 352 352 351 350 350 348 349 344 341 341 338 346 343 338 340 340 350 353 354 350 351 345 343 344 342 335 332 333 337 336 336 337 343 346 344 340
342 353 352 350 350 344 345 344 348 348 345 346 344 347 346 346 346 349 351 352 352 350 349 349 347 345 343 341 339 335 335 337 338 338 339 340 345 345
348 350 349 347 350 350 349 351 349 350 349 350 349 350 349 348 346 343 346 353 351 349 349 349 349 347 345 343 343 342 340 338 336 336 339 340 340 345
350 351 350 349 347 350 349 349 349 348 348 345 346 347 347 348 351 350 348 349 353 349 347 348 347 347 346 345 344 344 344 342 341 340 341 341 340 339
351 351 351 351 352 349 348 347 350 350 349 352 351 351 351 351 349 349 354 350 347 347 344 342 347 348 347 347 346 345 345 343 342 342 342 343 338 338
351 352 351 350 350 350 350 349 351 349 349 349 348 346 349 350 350 351 348 346 346 344 344 342 342 347 349 350 352 351 347 344 344 344 344 345 344 342
352 351 351 351 351 350 349 350 351 348 345 344 345 346 346 348 348 351 353 351 349 348 346 344 349 352 354 353 353 350 351 346 346 346 346 344 342 336
350 349 350 351 351 350 349 349 348 348 347 348 349 350 349 349 350 353 354 353 355 350 351 350 353 353 353 354 354 353 347 348 347 346 347 346 346 342
349 349 350 349 349 348 347 348 347 348 349 350 350 350 349 350 352 352 352 351 352 350 351 353 351 352 349 349 352 350 351 351 350 350 348 348 348 347
349 350 349 348 344 342 343 344 348 350 349 348 349 348 348 349 346 344 347 348 348 349 349 350 352 346 341 340 341 346 349 351 353 354 355 354 351 349
342 343 339 332 330 330 332 332 337 343 340 337 335 336 336 339 341 344 345 346 348 350 349 347 346 343 340 343 347 344 350 343 343 347 351 351 352 353
337 334 329 326 323 322 322 322 325 327 325 326 332 334 330 336 327 328 332 340 341 345 341 344 341 342 343 346 342 341 341 343 347 350 350 349 350 354
323 324 324 324 320 316 317 319 318 317 322 326 326 324 324 323 324 325 327 328 333 335 330 332 338 340 342 343 342 343 345 344 341 336 338 346 346 344
316 318 316 310 312 315 318 319 320 322 322 323 323 319 319 319 320 321 321 322 322 321 322 322 326 326 329 335 339 335 336 338 341 341 341 343 345 347
311 309 309 315 317 318 318 321 321 323 320 318 316 316 316 316 317 317 317 318 318 318 319 321 320 318 320 322 323 325 329 330 332 333 336 335 337 340
305 314 316 317 318 316 316 316 315 314 313 312 312 312 313 313 313 314 314 315 316 316 317 316 315 314 315 317 322 323 323 323 322 321 321 323 326 328
313 314 314 314 314 313 311 311 310 310 309 308 308 308 309 308 307 308 309 309 310 309 308 307 309 312 315 314 319 315 316 315 314 316 320 324 326 328
313 314 314 313 312 311 310 309 308 308 306 307 308 307 306 307 307 307 306 306 306 305 305 306 306 307 305 305 313 308 309 305 306 311 313 315 318 319
311 315 311 310 309 309 308 307 307 306 305 305 306 305 305 304 304 304 304 304 304 303 304 304 304 304 304 303 303 305 304 305 306 306 307 308 308 307
310 309 309 308 308 307 307 306 306 305 304 304 303 302 301 301 301 301 300 300 300 300 300 301 301 301 301 301 303 303 303 304 304 303 303 303 304 305
308 307 307 307 306 306 305 304 303 302 302 301 300 300 299 299 298 298 298 298 299 299 298 298 298 299 300 300 300 300 300 301 302 302 302 303 304 305
307 307 306 306 305 304 303 302 301 301 300 299 299 298 297 297 296 296 296 297 297 297 297 297 297 298 298 298 298 299 299 299 299 300 300 301 302 303
306 305 305 304 303 303 302 301 300 299 299 298 297 295 295 295 295 295 295 295 295 296 296 296 296 296 297 297 297 297 297 298 298 298 299 300 300 302

GFSNE_925_thetae_108.txt.gz
Theta_e
348 345 350 352 349 348 348 345 348 344 342 345 341 346 344 343 344 345 348 349 350 351 352 352 351 348 345 344 340 334 334 334 336 338 340 343 344 344
349 347 351 349 350 350 349 349 349 346 343 346 346 347 348 347 347 347 345 345 344 352 348 347 347 349 347 345 345 342 339 338 336 335 337 340 341 344
348 348 348 350 347 349 349 350 348 350 347 346 344 347 348 350 350 351 349 348 351 349 347 345 346 347 346 346 345 345 344 342 341 340 338 339 340 341
349 349 349 351 348 349 348 347 347 348 349 346 348 350 350 350 348 347 352 350 349 347 343 349 343 342 345 346 346 350 352 351 345 342 341 341 342 339
350 350 350 350 350 350 349 348 348 349 349 349 349 349 348 347 347 344 343 342 342 343 344 343 348 351 353 352 352 352 351 350 345 343 342 342 342 343
349 350 350 351 351 349 349 350 349 350 347 345 344 344 345 345 346 350 349 348 346 343 344 345 351 352 351 353 353 352 350 349 345 344 344 343 343 344
348 349 349 349 348 347 348 348 349 350 348 345 346 347 347 348 349 350 350 350 348 348 347 347 349 349 350 348 350 351 351 347 348 347 344 345 345 345
348 347 344 343 348 347 346 347 349 348 347 347 348 348 348 349 349 349 351 350 350 348 348 348 348 351 342 339 340 345 350 351 352 352 351 349 346 346
347 347 347 347 347 346 345 347 347 346 347 348 348 348 348 347 347 345 341 342 345 346 349 349 348 344 338 338 345 344 349 345 342 344 351 352 351 351
347 347 346 343 339 339 340 343 347 345 343 340 335 336 334 333 338 340 341 342 343 344 349 349 340 339 336 337 345 336 340 341 345 347 349 350 348 350
343 339 333 329 328 329 328 330 334 333 327 327 331 333 327 326 328 331 336 340 342 342 331 334 337 337 339 339 338 338 343 343 341 337 336 339 345 348
332 331 330 328 325 325 325 323 320 319 321 325 326 325 323 324 325 324 325 328 336 339 323 328 334 327 338 341 334 339 332 334 338 339 340 341 344 346
325 325 323 320 317 314 313 315 317 322 322 322 321 320 320 320 319 319 319 320 320 324 319 323 320 320 325 327 327 329 322 325 333 331 333 334 333 332
317 318 315 311 315 319 319 319 320 322 320 319 317 315 315 315 315 316 317 319 319 317 314 314 313 314 316 319 320 319 323 325 326 320 319 320 322 324
310 308 310 315 316 318 320 320 320 317 316 314 312 311 310 309 310 311 312 313 313 310 308 307 307 309 313 313 315 318 315 316 311 306 307 311 319 323
306 316 317 317 316 314 314 313 312 311 309 308 308 308 307 306 306 306 305 305 305 304 304 303 303 304 304 306 315 308 307 306 303 305 306 306 305 306
315 315 313 312 311 310 310 309 308 307 307 307 306 305 305 305 304 304 303 303 303 303 303 301 301 301 301 306 307 303 304 302 303 304 304 304 304 305
313 313 312 310 309 308 308 306 306 305 305 305 304 304 303 302 301 300 300 300 300 300 300 300 300 299 299 300 301 303 302 301 302 302 302 302 302 302
313 311 309 309 308 307 306 305 305 304 304 303 302 301 300 299 298 298 298 298 298 298 298 298 298 298 299 299 299 301 299 300 300 300 300 301 300 301
310 309 308 307 307 306 305 304 303 303 302 301 300 299 298 297 297 296 297 297 297 297 297 297 297 297 298 298 298 298 298 298 298 298 298 298 299 300
308 307 307 306 306 305 303 302 302 301 300 299 298 296 296 296 296 296 296 296 296 295 296 295 295 296 296 296 296 296 296 296 297 297 298 298 298 299
306 306 306 305 304 304 302 301 300 300 299 297 295 295 295 295 295 295 295 295 295 295 295 295 295 295 295 295 296 296 296 296 296 296 296 297 298 298
306 305 304 304 303 303 301 300 299 299 298 296 295 295 295 295 295 294 295 295 295 295 295 295 295 295 295 295 295 295 296 296 296 296 296 297 297 297

GFSNE_925_thetae_111.txt.gz
Theta_e
349 345 350 349 348 346 347 345 346 341 341 345 343 345 347 346 347 346 345 344 344 351 346 346 346 348 347 346 345 345 344 340 337 338 339 339 340 342
349 344 350 348 349 349 349 348 348 347 341 346 347 347 347 349 349 350 349 349 350 348 346 344 344 346 346 346 346 345 346 347 344 340 339 338 339 340
346 348 347 349 348 348 348 349 347 348 346 345 344 346 348 349 347 347 349 349 347 345 347 346 342 340 342 345 346 347 350 351 351 347 341 340 339 341
347 347 348 349 350 349 349 347 346 348 348 345 346 348 349 349 347 345 342 340 341 343 344 342 347 352 352 352 352 351 350 349 349 344 342 341 341 341
350 349 349 350 350 349 349 348 347 348 348 348 347 347 345 343 343 344 345 343 343 345 345 346 350 350 348 351 350 350 345 346 347 344 343 342 342 342
349 349 349 349 350 349 348 347 349 349 349 346 345 343 345 345 347 348 347 346 345 344 346 347 347 349 342 340 346 348 349 349 349 348 345 344 345 344
345 347 347 345 345 345 343 343 345 348 348 347 345 346 347 347 348 349 349 346 342 347 346 347 349 344 338 342 343 348 348 347 345 347 350 350 347 346
345 347 347 345 344 346 346 345 346 348 347 345 346 346 346 347 346 344 344 340 344 346 346 347 340 337 335 338 339 344 342 344 346 347 349 348 347 347
347 347 346 344 345 345 344 346 346 346 345 346 345 342 337 335 334 336 337 339 341 342 347 348 335 333 333 339 340 339 342 342 340 337 337 342 342 347
345 347 345 344 341 338 338 342 344 339 335 331 331 332 328 328 332 342 342 336 341 333 326 340 337 330 330 339 338 336 333 336 338 339 340 342 344 345
339 335 332 330 328 325 326 329 331 322 326 325 328 324 326 324 326 330 330 331 335 337 323 326 330 325 328 338 332 331 324 326 332 332 330 328 332 336
330 327 327 325 325 326 325 323 322 321 323 324 322 321 320 319 319 320 321 324 335 322 315 325 319 318 323 333 322 323 318 323 326 326 321 316 318 323
329 326 323 322 318 316 315 315 319 322 321 320 319 318 317 316 316 318 319 319 319 310 308 316 314 313 315 316 316 318 317 316 317 309 308 306 306 311
321 320 316 312 314 317 318 320 322 319 318 317 315 313 312 311 311 312 315 312 308 306 304 305 307 307 310 314 313 313 310 307 306 302 302 302 303 304
310 308 308 315 317 319 319 319 317 316 314 313 309 307 306 306 306 306 309 308 303 302 301 301 301 301 302 304 309 305 304 303 301 300 301 301 301 302
307 315 316 315 316 314 313 312 311 310 309 307 306 306 305 304 303 302 302 302 300 299 299 299 299 300 300 304 307 302 302 300 299 300 300 300 301 301
313 314 313 312 311 310 309 308 307 307 306 305 304 303 303 301 300 299 299 299 298 298 298 298 298 299 300 302 301 301 299 298 299 299 299 299 299 300
314 312 310 310 309 307 307 306 305 305 304 303 302 301 299 298 298 297 297 297 297 297 297 297 297 298 298 299 299 300 297 297 297 297 297 298 298 298
312 311 310 308 307 306 306 305 303 303 302 301 300 298 297 297 297 297 297 297 296 296 296 295 295 295 296 296 297 298 296 296 296 296 296 296 296 297
312 309 308 307 306 305 304 303 302 301 300 299 297 296 296 296 296 296 296 296 295 295 295 295 295 295 294 295 295 296 296 296 296 296 296 296 296 297
309 308 307 306 305 304 303 302 301 300 298 296 295 296 296 296 296 295 295 295 295 295 295 295 295 295 295 295 296 296 296 296 296 296 296 296 297 297
307 307 306 305 304 303 302 301 300 298 297 295 295 295 295 296 296 295 295 295 295 295 295 294 295 295 295 295 296 296 296 296 296 297 297 297 297 297
306 306 305 304 303 302 301 300 299 298 297 295 295 295 296 295 295 295 295 295 295 295 295 295 295 295 296 296 296 296 296 296 296 296 296 296 296 297

GFSNE_925_thetae_114.txt.gz
Theta_e
347 347 349 349 348 346 346 344 345 350 349 344 345 345 346 348 348 348 348 348 349 348 346 345 343 342 346 346 345 345 345 345 346 343 338 337 337 340
348 343 348 348 348 349 349 348 347 346 349 345 346 344 345 348 347 349 347 348 346 345 346 345 343 341 340 343 346 346 346 349 351 350 344 339 339 339
347 347 347 347 347 347 348 348 347 347 347 346 345 344 345 349 348 346 344 344 343 345 344 342 349 351 351 351 351 350 349 348 348 346 343 342 340 340
348 346 347 348 349 348 348 348 347 346 347 346 346 346 347 347 344 343 343 344 345 344 344 344 350 346 343 346 348 346 345 346 347 343 343 342 341 342
349 349 348 349 349 349 349 348 348 346 348 347 347 345 343 342 342 344 346 344 342 344 345 347 348 340 339 342 347 345 347 348 349 348 344 343 342 342
350 349 349 349 348 350 348 347 347 348 348 347 346 345 343 345 346 348 347 345 340 345 346 348 347 336 342 340 345 342 343 344 344 346 349 347 344 344
348 348 348 348 347 345 344 344 344 344 347 346 345 344 345 345 347 347 346 341 341 348 344 346 337 334 338 341 343 341 342 343 342 346 347 347 347 347
346 346 347 346 345 344 344 345 344 345 347 345 345 345 345 345 343 336 337 339 343 342 345 346 335 332 340 335 334 337 339 339 337 338 341 342 345 345
346 346 345 344 343 340 343 343 344 343 344 345 343 339 335 333 332 336 339 339 342 326 333 347 334 329 338 326 325 328 333 335 334 333 336 337 338 335
343 340 342 343 340 338 338 342 341 335 332 332 332 329 327 328 331 339 340 338 339 329 325 333 331 327 335 328 324 324 322 324 327 324 322 324 328 329
341 339 338 335 334 328 328 334 328 326 325 327 325 321 321 323 326 329 328 332 338 328 319 327 319 320 324 327 318 317 315 316 317 313 311 312 314 319
325 325 326 324 324 323 323 323 321 322 323 321 319 319 319 320 321 321 322 328 333 321 310 320 316 314 320 325 314 314 310 309 308 305 303 303 303 305
330 327 325 323 320 319 318 317 318 322 320 319 317 315 315 315 317 317 317 318 314 307 304 310 309 309 312 315 313 312 305 303 302 301 301 301 301 302
323 322 320 315 314 316 317 319 321 319 317 315 313 310 309 308 311 311 308 308 306 303 301 302 303 304 307 309 310 308 303 302 300 301 301 301 301 301
311 310 308 312 316 318 319 319 317 316 314 312 308 306 305 304 304 308 304 301 300 300 299 300 300 300 301 305 308 303 302 301 300 300 300 300 301 301
305 311 313 315 317 316 314 312 311 310 310 308 306 304 303 302 301 300 300 302 299 299 298 299 299 300 301 303 302 301 299 300 299 299 299 299 300 300
314 315 313 312 310 310 309 309 308 307 306 305 304 302 300 299 298 298 298 298 299 298 298 298 298 299 299 300 301 299 299 298 298 298 298 298 299 299
312 311 311 310 308 307 307 306 305 304 303 302 301 299 298 298 298 298 298 298 298 297 297 296 297 298 299 299 299 298 298 297 297 297 298 298 299 299
312 311 310 308 307 306 306 304 303 302 301 300 299 297 297 297 298 297 297 297 297 297 296 296 297 297 299 300 298 297 296 297 297 298 298 298 298 298
308 310 309 307 306 306 305 303 302 301 300 298 297 296 296 297 297 297 297 296 297 296 296 296 296 296 297 296 297 297 296 297 297 298 298 298 298 298
308 309 307 307 306 305 303 302 301 300 298 296 296 296 296 296 296 296 296 296 296 296 297 296 296 295 296 297 298 298 297 297 296 296 296 297 298 298
309 308 306 306 305 304 303 301 300 298 296 295 295 296 296 296 296 296 296 296 296 296 296 296 296 296 297 297 298 298 298 298 297 296 296 296 296 297
308 307 306 305 304 303 302 300 299 297 296 295 295 295 295 295 295 295 296 296 296 296 295 296 296 297 297 297 297 298 298 298 298 297 297 295 295 296

GFSNE_925_thetae_117.txt.gz
Theta_e
350 347 351 354 350 350 349 348 349 349 348 348 348 347 348 351 351 354 352 348 347 346 347 345 343 342 342 343 346 346 345 346 348 348 344 339 338 338
350 348 346 352 352 352 351 350 350 350 350 349 349 350 348 350 350 351 350 345 343 345 344 344 346 348 349 350 350 349 349 349 349 350 347 343 340 340
350 348 351 351 350 351 351 352 351 351 349 346 350 348 347 351 353 350 349 350 349 346 345 349 348 345 346 348 348 346 346 345 346 347 343 342 341 340
349 349 351 350 351 347 351 351 351 351 350 350 350 350 350 350 348 350 349 348 349 347 345 347 342 340 342 346 346 346 346 348 348 344 342 341 341 340
351 352 352 351 351 348 347 349 351 350 350 351 351 351 349 347 348 350 352 351 346 347 348 345 338 340 342 344 343 343 344 345 346 348 347 344 342 341
347 351 352 351 350 351 347 348 349 347 348 351 351 350 348 350 349 350 349 349 346 350 348 342 340 341 341 340 340 341 341 342 344 346 345 345 347 347
350 347 348 347 347 347 346 346 343 343 343 348 350 350 350 348 350 349 346 346 349 344 350 344 341 340 336 334 335 337 337 337 338 340 342 344 345 344
349 351 347 345 344 344 344 342 344 345 346 350 350 349 350 349 347 342 343 345 347 336 348 341 339 331 330 325 327 330 332 331 331 330 331 333 335 341
346 351 344 344 343 343 342 342 342 342 343 349 350 348 343 343 335 341 346 346 346 329 338 343 336 337 328 319 320 321 321 322 324 323 320 323 329 331
340 344 344 340 339 340 337 339 337 330 330 333 335 331 328 327 332 339 343 343 335 328 328 339 330 332 335 322 316 314 313 312 315 314 311 311 311 322
336 338 340 340 338 335 332 337 327 326 326 328 326 321 321 322 325 332 333 337 340 333 317 328 325 324 330 328 319 312 308 306 304 303 304 304 304 309
327 327 329 326 326 324 323 328 328 328 324 323 321 319 320 320 321 322 327 333 335 330 312 320 320 318 322 326 318 311 310 304 303 302 302 302 302 307
329 325 322 324 323 322 321 320 326 325 322 321 319 317 316 316 315 315 316 317 321 315 306 313 314 312 313 315 315 311 308 306 305 306 304 303 302 302
327 322 323 320 316 317 317 317 319 321 320 318 317 315 313 313 312 311 309 308 307 306 302 302 309 308 310 311 313 309 306 305 304 305 305 305 305 304
311 311 309 311 315 318 319 319 317 316 316 313 314 312 309 308 310 309 305 302 301 302 302 300 305 306 308 310 310 306 304 305 303 303 303 304 304 304
308 310 312 315 317 317 314 315 313 312 312 313 311 308 306 305 304 305 305 306 304 304 302 299 300 304 307 307 305 304 303 304 302 303 303 304 304 304
313 314 314 313 312 311 311 311 309 309 310 309 308 306 305 304 303 303 303 304 304 304 303 302 303 304 304 305 305 303 303 303 302 302 303 303 304 303
313 315 315 314 314 313 312 309 307 307 304 305 304 304 304 303 303 303 302 303 303 302 302 302 302 304 304 303 300 301 302 302 302 302 303 303 304 303
311 314 314 313 311 311 309 309 307 306 305 304 304 303 302 302 303 302 302 302 302 302 302 301 302 303 305 305 302 300 300 300 301 301 301 301 302 302
307 311 314 313 312 311 309 307 305 304 304 303 302 302 302 302 302 302 302 302 302 302 302 301 301 301 302 302 302 302 299 300 300 300 300 300 300 300
308 310 312 311 310 309 307 306 305 304 302 301 301 301 301 301 301 301 300 299 300 302 302 301 300 298 301 301 303 303 302 300 299 299 299 299 298 299
310 311 311 310 309 308 306 305 304 301 301 300 300 300 300 301 301 301 301 301 301 301 301 301 300 301 301 301 302 302 302 301 300 299 299 298 297 297
311 311 310 309 308 307 306 304 303 302 301 300 300 300 300 300 300 300 300 300 301 301 300 301 301 301 301 301 301 302 301 301 301 300 300 299 297 295

GFSNE_925_thetae_123.txt.gz
Theta_e
351 352 354 347 343 345 345 344 344 345 343 347 346 350 349 346 349 352 349 351 346 347 343 343 346 346 348 347 347 347 346 345 347 348 349 348 342 339
351 350 351 349 348 348 346 346 346 347 348 344 343 347 351 348 346 351 349 345 349 348 344 343 345 344 345 346 346 345 345 346 344 345 347 348 344 340
353 352 354 353 351 347 349 349 346 344 346 347 347 350 351 350 351 352 348 349 349 348 346 344 343 342 344 344 343 343 344 345 346 343 342 343 342 340
354 353 352 351 352 354 349 347 351 352 351 353 349 347 350 352 352 353 353 348 350 346 344 344 341 342 342 341 340 340 342 343 345 346 346 342 340 340
352 351 351 351 351 350 351 351 350 351 350 351 350 351 350 350 351 350 352 350 351 348 346 342 340 340 338 337 336 336 337 338 340 343 344 345 345 346
353 354 354 352 351 351 352 351 351 345 342 347 346 348 351 350 349 350 347 350 346 347 339 340 340 335 334 333 330 329 329 332 334 335 337 340 342 344
353 353 353 353 352 349 350 348 347 346 342 348 347 347 348 347 343 344 346 350 350 347 344 339 339 329 323 325 322 321 321 322 323 326 329 332 333 335
352 352 352 351 347 346 346 347 349 346 349 346 347 350 350 352 349 349 348 350 350 348 349 349 342 331 321 321 319 316 313 312 314 315 318 324 328 325
350 351 352 351 348 350 343 342 342 341 341 342 348 350 349 345 343 344 350 351 352 342 346 349 341 330 319 318 317 316 309 306 306 306 308 312 316 316
346 346 351 350 346 344 346 343 339 337 338 338 342 339 333 329 334 342 345 347 347 341 337 344 340 332 323 322 319 315 312 305 303 302 302 308 312 316
336 336 337 340 340 338 338 340 339 335 331 332 332 328 326 325 325 331 338 341 346 345 333 332 339 335 335 323 322 316 313 310 309 308 305 303 311 313
338 335 334 334 334 337 335 342 341 339 328 327 329 329 327 327 324 325 327 329 333 332 322 326 331 324 322 330 323 315 315 311 311 310 310 308 305 312
340 337 328 328 324 323 323 333 337 337 338 334 334 331 328 327 323 323 320 321 325 324 317 318 321 318 317 320 323 317 314 313 312 312 311 310 309 309
335 334 331 328 325 323 322 324 328 328 332 332 331 329 326 323 322 320 317 314 313 316 311 308 317 315 317 316 317 318 313 313 311 311 311 311 311 310
318 318 316 312 314 318 317 318 318 321 327 328 328 325 322 320 320 318 314 309 310 311 311 307 315 315 314 315 315 315 311 311 311 311 311 311 311 311
320 319 313 312 316 321 318 319 323 324 324 324 322 321 317 316 315 314 314 315 313 315 311 307 312 314 315 314 312 312 311 311 310 310 311 311 311 311
311 320 320 320 320 321 321 322 321 319 320 320 319 316 315 312 312 311 311 311 312 313 312 311 310 309 311 313 312 311 310 309 309 309 309 309 310 310
312 317 320 321 321 320 320 319 319 317 319 317 317 316 314 312 311 310 310 310 311 311 310 310 310 310 311 311 306 308 308 308 308 307 308 307 308 308
306 311 314 317 318 319 319 319 319 318 317 315 314 313 312 312 309 309 310 310 310 310 309 309 309 309 310 312 307 306 307 307 307 307 307 307 306 306
311 312 312 313 317 318 317 317 317 314 314 313 312 311 310 309 309 309 309 309 309 309 309 309 308 308 309 309 309 308 306 307 307 306 305 305 305 304
312 313 313 313 314 316 318 317 316 315 313 312 311 310 309 309 308 308 308 306 305 308 308 308 309 303 305 308 309 310 307 306 305 306 305 304 305 303
313 313 314 314 314 315 317 317 315 314 312 311 310 309 308 307 307 307 307 307 307 307 307 307 307 307 307 308 308 308 307 307 306 306 304 303 304 303
314 314 313 314 315 315 316 315 314 313 311 310 308 308 307 307 306 306 306 306 306 307 307 306 307 307 307 307 306 306 307 307 306 306 306 305 303 303